                ,  0.290,  0.386,  0.483,  0.580,  0.676,  0.773,  0.869,  0.966,  1.063,  1.159,  1.256,  1.352,  1.449,  1.545,  1.642,  1.739,  1.835,  1.932,  2.028,  2.125,  2.222,  2.318,  2.415,  2.511,  2.608,  2.705,  2.801,  2.898,  2.994,  3.091,  3.188,  3.284,  3.381,  3.477,  3.574,  3.671,  3.767,  3.864,  3.960,  4.057,  4.153,  4.250,  4.347,  4.443,  4.540,  4.636,  4.733,  4.830,  4.926,  5.023,  5.119,  5.216,  5.313,  5.409,  5.506,  5.602,  5.699,  5.796
2001/02/18 00:00,  999.0,    5.2,    2.9,    1.5,    1.8,   -0.3,    4.6,    5.0,    8.0,  999.0,  999.0,  999.0,  999.0,  999.0,  999.0,  999.0,  999.0,  999.0,  999.0,  999.0,  999.0,  999.0,  999.0,  999.0,  999.0,  999.0,  999.0,  999.0,  999.0,  999.0,  999.0,  999.0,  999.0,  999.0,  999.0,  999.0,  999.0,  999.0,  999.0,  999.0,  999.0,  999.0,  999.0,  999.0,  999.0,  999.0,  999.0,  999.0,  999.0,  999.0,  999.0,  999.0,  999.0,  999.0,  999.0,  999.0,  999.0,  999.0
2001/02/18 00:10,  999.0,    0.2,  999.0,    1.5,  999.0,   -0.4,    1.8,    3.7,   10.7,   10.4,   13.6,    9.1,  999.0,   10.4,   11.4,  999.0,  999.0,    8.4,  999.0,  999.0,    6.3,  999.0,   28.1,  999.0,  999.0,  999.0,   41.9,  999.0,  999.0,   42.3,  999.0,  999.0,  999.0,   -2.1,   -3.0,  999.0,  999.0,  999.0,  999.0,  999.0,  999.0,   -6.5,  999.0,  999.0,   -7.9,   -8.5,   -9.3,   -9.6,  999.0,  999.0,  -10.7,  -11.9,  999.0,  999.0,  999.0,  999.0,  999.0,  999.0
2001/02/18 00:20,  999.0,    4.1,    7.8,    2.2,    0.9,   -0.1,    0.8,    5.8,    7.9,   10.0,   10.3,    0.3,  999.0,   13.7,  999.0,  999.0,  999.0,  999.0,   14.7,   20.9,   14.8,  999.0,  999.0,  999.0,  999.0,  999.0,  999.0,  999.0,  999.0,  999.0,  999.0,  999.0,  999.0,  999.0,  999.0,  999.0,  999.0,  999.0,  999.0,   30.8,  999.0,  999.0,  999.0,  999.0,  999.0,  999.0,  999.0,  999.0,  999.0,  999.0,  999.0,  999.0,  999.0,  999.0,  999.0,  999.0,  999.0,  999.0
2001/02/18 00:30,  999.0,  999.0,  999.0,    5.4,    5.3,    6.7,    9.0,    9.4,   11.2,   11.3,   10.5,  999.0,   10.3,   12.7,  999.0,  999.0,  999.0,  999.0,   27.3,   24.4,  999.0,   31.4,  999.0,  999.0,   35.0,   37.2,  999.0,  999.0,  999.0,   42.2,   40.3,  999.0,   41.4,  999.0,   41.4,   42.2,  999.0,   41.6,   43.3,  999.0,   43.1,  999.0,   41.9,  999.0,   42.4,  999.0,   41.7,   41.5,  999.0,  999.0,   41.9,   41.4,  999.0,   41.6,   42.3,   42.5,  999.0,   41.5
2001/02/18 00:40,  999.0,    3.2,    6.9,    8.2,   10.3,    8.0,    9.0,    8.8,   10.5,   10.9,  999.0,   13.3,   11.0,  999.0,  999.0,  999.0,  999.0,  999.0,  999.0,   25.6,   25.4,  999.0,   29.6,   31.4,   30.1,  999.0,  999.0,  999.0,   34.2,   35.6,   40.3,   36.6,  999.0,   42.9,  999.0,   40.5,  999.0,   41.8,   42.0,   41.4,   40.7,   40.8,   42.1,   41.3,   41.8,   41.3,   41.5,   41.8,   41.9,   42.4,   41.3,   42.0,   41.4,   41.8,  999.0,   42.3,  999.0,  999.0
2001/02/18 00:50,  999.0,    4.0,    5.9,    3.5,    6.8,    9.3,    9.7,    2.5,    6.0,    4.3,  999.0,   11.0,  999.0,  999.0,  999.0,  999.0,  999.0,  999.0,  999.0,  999.0,  999.0,  999.0,   21.6,  999.0,  999.0,  999.0,  999.0,   31.3,   11.1,  999.0,  999.0,   24.2,  999.0,  999.0,  999.0,  999.0,  999.0,  999.0,  999.0,  999.0,  999.0,  999.0,  999.0,  999.0,  999.0,  999.0,  999.0,  999.0,  999.0,  999.0,  999.0,  999.0,  999.0,  999.0,  999.0,  999.0,  999.0,  999.0
2001/02/18 01:00,  999.0,    0.6,    0.4,    1.4,    3.8,    8.3,    5.9,   10.5,   10.5,   10.2,  999.0,    9.9,   11.0,  999.0,  999.0,  999.0,  999.0,  999.0,   18.5,   21.8,   16.4,   20.0,  999.0,  999.0,  999.0,  999.0,  999.0,  999.0,  999.0,  999.0,  999.0,  999.0,  999.0,  999.0,  999.0,  999.0,   38.2,   32.0,   40.3,   38.9,  999.0,  999.0,  999.0,  999.0,   41.3,  999.0,  999.0,   42.2,  999.0,  999.0,  999.0,  999.0,  999.0,  999.0,   41.6,  999.0,   41.8,   42.0
2001/02/18 01:10,  999.0,    1.1,    5.1,    7.3,    7.9,    7.0,   10.1,   10.3,   10.5,   10.7,  999.0,    8.4,  999.0,  999.0,   20.9,  999.0,  999.0,   16.6,   18.1,  999.0,   20.9,   21.3,   29.4,   26.1,   27.3,   30.9,   31.7,   33.2,  999.0,  999.0,   32.9,   37.0,   37.0,  999.0,   39.3,   40.5,   41.4,   41.4,  999.0,  999.0,  999.0,  999.0,  999.0,   42.1,  999.0,   41.7,   41.2,   42.2,   40.5,   41.8,   39.7,  999.0,   41.5,   42.6,  999.0,   42.0,  999.0,   42.9
2001/02/18 01:20,  999.0,    3.2,  999.0,    7.6,    9.5,    8.9,    8.9,   10.0,  999.0,    9.6,    9.4,   10.7,  999.0,  999.0,  999.0,  999.0,   15.3,   15.6,   17.6,   18.5,  999.0,   23.8,  999.0,   24.9,   28.6,   29.0,   30.2,   33.5,   34.8,   36.0,   39.0,   37.7,  999.0,   40.2,   41.0,   41.3,   40.8,  999.0,   41.8,   42.4,   42.0,   42.3,   42.4,  999.0,   41.6,   41.7,  999.0,   41.3,   46.1,  999.0,   42.0,  999.0,   42.7,   42.1,   41.3,  999.0,  999.0,  999.0
2001/02/18 01:30,  999.0,    2.6,   10.8,   10.5,   12.8,  999.0,   11.0,   10.1,   13.0,   12.4,   10.6,  999.0,  999.0,  999.0,   25.7,  999.0,  999.0,   20.0,   21.6,   21.3,   23.4,  999.0,   22.7,  999.0,   27.6,  999.0,  999.0,   36.1,   36.8,  999.0,   40.1,   38.7,   39.8,   39.0,  999.0,   41.7,   42.1,   42.1,   42.7,   42.0,  999.0,   41.6,   41.7,   41.7,   41.3,   42.2,  999.0,   42.1,   42.2,   42.0,   42.0,   42.9,   41.0,  999.0,   42.3,   40.8,   42.1,   42.2
2001/02/18 01:40,  999.0,    9.7,  999.0,   11.1,  999.0,    9.4,    7.4,   11.5,   11.5,   20.7,   10.5,   12.0,   12.6,  999.0,   21.8,  999.0,  999.0,   24.4,   20.7,   20.7,   22.3,   22.6,   24.5,   29.8,   29.1,   35.3,  999.0,   39.1,   36.1,   37.9,   38.0,   39.3,   36.7,   38.4,   40.4,   42.0,   41.2,   40.0,   42.5,   41.8,   41.5,   41.4,   41.2,   41.2,   42.1,   41.7,   42.0,   42.1,   41.6,   41.1,   42.0,   42.0,   42.2,   41.7,  999.0,  999.0,   41.8,   41.7
2001/02/18 01:50,  999.0,  999.0,  999.0,  999.0,    6.5,    7.3,    7.7,   11.9,   11.6,   14.3,   12.0,   12.0,  999.0,  999.0,  999.0,   21.8,   25.3,   26.3,   22.9,   20.7,   25.3,  999.0,   29.4,   31.0,   29.3,   30.4,   35.2,   37.4,  999.0,   40.1,   41.5,  999.0,   37.5,  999.0,   41.9,   40.7,   41.8,   41.6,  999.0,   41.8,   41.7,   42.4,  999.0,   41.9,   42.6,   42.2,  999.0,   41.6,   42.2,  999.0,   42.1,  999.0,   41.8,  999.0,   42.1,   42.0,  999.0,  999.0
2001/02/18 02:00,  999.0,    7.6,    7.6,    4.8,    5.1,    9.0,   11.5,   10.9,   11.2,    8.8,   10.3,   11.2,   11.9,   14.0,  999.0,  999.0,  999.0,  999.0,  999.0,  999.0,   19.2,  999.0,  999.0,   26.1,  999.0,  999.0,   23.8,   26.0,   27.8,   29.2,   30.3,  999.0,   35.0,   31.7,  999.0,   34.8,   32.9,  999.0,   39.0,  999.0,  999.0,  999.0,   39.2,  999.0,   41.6,  999.0,   42.2,   41.5,   42.4,  999.0,  999.0,   41.0,   41.4,   42.2,  999.0,   41.7,  999.0,   41.8
2001/02/18 02:10,  999.0,  999.0,   10.3,  999.0,   12.6,  999.0,   10.1,   11.2,   11.4,  999.0,  999.0,   10.0,   12.9,   17.6,  999.0,  999.0,  999.0,  999.0,  999.0,  999.0,  999.0,   19.9,  999.0,   23.4,  999.0,  999.0,   26.8,  999.0,  999.0,   30.5,   32.9,  999.0,   34.2,   34.4,  999.0,  999.0,   36.8,   37.9,  999.0,   38.7,  999.0,  999.0,   41.5,   41.3,   42.0,  999.0,   41.9,   41.5,   41.7,  999.0,  999.0,  999.0,   41.5,   41.7,   41.1,  999.0,  999.0,  999.0
2001/02/18 02:20,  999.0,  999.0,    9.2,   10.4,   11.7,   10.6,   10.4,    9.9,    9.8,    9.3,    9.6,  999.0,   12.2,  999.0,  999.0,  999.0,  999.0,  999.0,   16.6,  999.0,  999.0,   19.8,  999.0,   20.0,  999.0,  999.0,  999.0,   30.3,  999.0,  999.0,  999.0,  999.0,  999.0,   34.7,  999.0,  999.0,   35.8,   36.8,  999.0,  999.0,  999.0,  999.0,  999.0,  999.0,  999.0,   41.0,  999.0,  999.0,   41.8,  999.0,  999.0,   42.4,   42.7,  999.0,   41.6,  999.0,   41.6,   42.3
2001/02/18 02:30,  999.0,    6.2,    8.3,    9.1,    7.9,    6.8,   10.3,    9.4,    9.7,   10.3,   11.1,   11.6,  999.0,  999.0,  999.0,  999.0,  999.0,   11.4,  999.0,  999.0,  999.0,  999.0,  999.0,  999.0,  999.0,  999.0,  999.0,  999.0,  999.0,  999.0,  999.0,  999.0,  999.0,  999.0,  999.0,  999.0,  999.0,  999.0,  999.0,  999.0,  999.0,  999.0,  999.0,  999.0,  999.0,  999.0,  999.0,  999.0,  999.0,  999.0,  999.0,  999.0,  999.0,  999.0,  999.0,  999.0,  999.0,  999.0
2001/02/18 02:40,  999.0,    8.4,    7.3,   10.1,    8.8,    7.8,    8.0,    9.3,   10.5,   10.8,   11.4,  999.0,  999.0,    9.1,  999.0,  999.0,  999.0,  999.0,  999.0,  999.0,  999.0,  999.0,  999.0,  999.0,  999.0,  999.0,  999.0,  999.0,  999.0,  999.0,  999.0,  999.0,  999.0,  999.0,  999.0,  999.0,  999.0,  999.0,  999.0,  999.0,  999.0,  999.0,  999.0,  999.0,  999.0,  999.0,  999.0,  999.0,  999.0,  999.0,  999.0,  999.0,  999.0,  999.0,  999.0,  999.0,  999.0,  999.0
2001/02/18 02:50,  999.0,    5.5,   10.1,   11.1,   13.5,    9.9,    7.5,    8.8,   10.8,   10.4,   10.9,   11.1,   13.8,  999.0,    9.8,  999.0,  999.0,  999.0,  999.0,  999.0,  999.0,  999.0,  999.0,  999.0,  999.0,  999.0,  999.0,  999.0,  999.0,  999.0,  999.0,  999.0,  999.0,  999.0,  999.0,  999.0,  999.0,  999.0,  999.0,  999.0,  999.0,  999.0,  999.0,  999.0,  999.0,  999.0,  999.0,  999.0,  999.0,  999.0,  999.0,  999.0,  999.0,  999.0,  999.0,  999.0,  999.0,  999.0
2001/02/18 03:00,  999.0,    7.8,   12.1,   11.1,   11.9,   10.9,   10.2,    9.9,    9.9,   11.9,  999.0,    9.9,  999.0,  999.0,  999.0,  999.0,  999.0,   10.4,    8.8,   10.3,  999.0,   -4.1,   -5.9,   -4.6,  999.0,  999.0,  999.0,  999.0,   10.5,    9.6,    9.8,    4.2,    1.8,  999.0,  999.0,  999.0,    4.6,    3.8,    2.0,  999.0,    0.6,    1.1,  999.0,  999.0,  999.0,  999.0,    0.8,  999.0,  999.0,    0.2,    0.4,    1.3,  999.0,    1.4,    1.1,    0.9,    2.3,  999.0
2001/02/18 03:10,  999.0,    7.1,  999.0,   13.2,  999.0,    6.4,   10.2,    8.1,   11.4,  999.0,  999.0,  999.0,  999.0,  999.0,  999.0,  999.0,   14.2,    9.0,  999.0,  999.0,  999.0,  999.0,    8.0,    7.4,    8.0,    6.9,  999.0,  999.0,  999.0,    9.1,  999.0,    7.3,    7.1,    4.6,    3.9,  999.0,    2.8,    3.5,    3.2,    1.3,    1.3,  999.0,  999.0,  999.0,   -0.4,    0.7,    0.6,    0.5,    0.5,    0.3,  999.0,    0.6,    0.2,    2.3,    1.0,  999.0,    1.5,  999.0
2001/02/18 03:20,  999.0,  999.0,    8.7,    9.5,   13.2,   13.5,   13.0,    5.8,    8.6,   10.0,  999.0,    5.7,   10.1,   11.8,    8.5,  999.0,  999.0,  999.0,  999.0,  999.0,    7.0,    7.0,    5.9,    2.2,    3.2,    0.6,    2.0,  999.0,    7.1,    4.0,    5.2,  999.0,    2.5,  999.0,    2.1,    1.1,    1.1,    0.8,  999.0,    0.9,    0.7,    0.3,    0.5,    0.7,    0.9,  999.0,    0.6,  999.0,    1.0,  999.0,    0.9,    0.9,    0.6,  999.0,    0.5,    0.9,  999.0,  999.0
2001/02/18 03:30,  999.0,  999.0,  999.0,    9.9,   12.4,   15.8,   12.9,   10.3,   10.0,   11.9,   12.5,   12.6,   12.3,   11.9,   19.5,  999.0,   10.8,  999.0,  999.0,    7.5,    5.9,   10.8,    9.4,   15.5,   27.6,   37.4,   39.1,   24.4,   41.8,  999.0,   42.6,  999.0,   42.6,   22.0,   42.9,    1.0,    0.0,   41.9,    0.6,    0.5,  999.0,  999.0,   21.3,   42.1,  999.0,   21.2,   41.6,   41.4,   41.5,  999.0,  999.0,  999.0,   41.3,  999.0,   41.9,   41.7,  999.0,  999.0
2001/02/18 03:40,  999.0,    6.2,    5.5,   10.3,   12.4,    9.6,    9.9,    9.0,    9.3,   10.1,   10.4,   11.7,   12.1,   11.8,   12.8,   14.4,   13.7,   15.4,   17.5,  999.0,   15.8,  999.0,   16.4,   21.4,   18.2,  999.0,  999.0,  999.0,  999.0,   26.8,  999.0,   28.4,   29.5,   20.7,   21.3,  999.0,   32.9,   22.4,   22.4,   35.0,  999.0,   29.8,  999.0,   23.9,   23.8,   39.3,  999.0,   41.5,   41.3,  999.0,  999.0,  999.0,   41.0,  999.0,   40.7,   41.9,   41.9,  999.0
2001/02/18 03:50,  999.0,    4.8,   15.2,    3.4,   10.8,   10.1,    8.3,   10.2,   10.0,   11.6,   13.4,   14.3,   13.6,   14.8,   13.5,   14.7,   16.1,   15.7,   16.9,   16.3,   15.5,   13.7,  999.0,  999.0,  999.0,  999.0,  999.0,  999.0,    3.6,  999.0,    4.4,  999.0,  999.0,  999.0,  999.0,  999.0,  999.0,  999.0,  999.0,  999.0,  999.0,  999.0,  999.0,  999.0,  999.0,  999.0,  999.0,  999.0,  999.0,  999.0,  999.0,  999.0,  999.0,  999.0,  999.0,  999.0,  999.0,  999.0
2001/02/18 04:00,  999.0,    5.2,  999.0,    8.1,    5.2,    2.9,    1.6,   10.1,   10.6,   12.0,   12.1,   12.4,   12.8,   12.4,   12.5,   13.6,   14.8,   14.3,  999.0,  999.0,  999.0,  999.0,  999.0,  999.0,  999.0,  999.0,  999.0,  999.0,  999.0,  999.0,  999.0,  999.0,  999.0,  999.0,  999.0,  999.0,  999.0,  999.0,  999.0,  999.0,  999.0,  999.0,  999.0,  999.0,  999.0,  999.0,  999.0,  999.0,  999.0,  999.0,  999.0,  999.0,  999.0,  999.0,  999.0,  999.0,  999.0,  999.0
2001/02/18 04:10,  999.0,  999.0,  999.0,   -0.9,    6.7,    8.6,    6.0,    5.6,    5.9,    3.6,   -0.2,   -1.9,   -1.6,   -0.1,   -3.7,   -1.4,    2.0,    8.1,   13.6,   10.9,   13.6,   14.8,   12.0,   17.5,   14.7,   14.9,   15.2,   16.3,   16.6,   16.5,   16.7,   15.8,   17.1,   18.2,   18.9,   20.4,   20.2,   20.3,   20.4,   20.6,   20.2,   18.7,   17.5,   20.1,   21.9,   12.5,   13.3,   17.0,   17.9,   12.5,   11.9,   12.2,   11.4,   12.5,   27.5,   27.8,  999.0,  999.0
2001/02/18 04:20,  999.0,    4.8,    7.3,    7.7,    3.3,    5.7,    5.7,    4.6,    3.4,    3.5,    5.2,    6.4,    7.2,    7.7,    8.8,    9.9,   10.8,   11.9,   13.2,   14.5,   16.0,   17.7,   20.3,   20.8,   21.3,   19.6,   17.8,   15.6,   16.2,   17.6,   18.5,   19.3,   20.4,   22.1,   20.7,   20.9,   20.8,   20.1,   18.9,   25.1,   20.7,   23.2,   26.0,   28.0,   29.9,   30.6,   29.5,   30.1,   31.0,   31.5,   33.0,   31.5,   31.4,   32.0,   31.5,  999.0,  999.0,  999.0
2001/02/18 04:30,  999.0,    9.8,   12.6,   11.7,   10.9,   10.4,    9.9,   10.3,   10.6,   10.8,   11.4,   11.9,   11.8,   11.6,   12.2,   13.6,   14.1,   14.7,   15.6,   16.5,   16.9,   17.3,   17.0,   17.2,   15.3,   14.9,   13.1,   13.7,   13.7,   14.4,   13.9,   15.4,   15.7,   17.4,   17.9,   19.4,   18.0,   19.4,   19.4,   16.8,   16.9,   15.8,   20.6,   22.7,   22.9,   20.4,   18.6,   17.4,   16.7,   15.5,   15.1,   15.1,   16.2,   16.6,   19.3,   18.6,    6.9,    6.4
2001/02/18 04:40,  999.0,   13.6,   11.0,   10.7,    9.6,    9.3,    9.9,   10.9,   11.0,   11.6,   11.9,   12.1,   12.3,   12.0,   12.0,   13.1,   13.3,   13.3,   14.1,   14.8,   15.6,   16.1,   15.3,   15.2,   16.0,   15.4,   15.1,   15.3,   15.7,   15.8,   16.5,   16.9,   18.4,   21.1,   23.1,   24.3,   25.6,   23.1,   20.3,   24.3,   25.3,  999.0,   23.7,  999.0,  999.0,  999.0,  999.0,  999.0,   29.2,  999.0,  999.0,  999.0,  999.0,  999.0,  999.0,  999.0,  999.0,  999.0
2001/02/18 04:50,  999.0,  999.0,    5.6,    9.0,  999.0,    7.0,    6.1,    5.9,    4.1,    5.0,    8.2,    8.7,    9.5,    8.1,    7.0,    7.5,    8.9,   10.0,   11.6,   13.3,   18.4,   19.6,   14.8,   20.3,   15.5,   15.0,   15.5,   28.2,   15.3,   18.9,   17.2,   21.3,   42.3,  999.0,  999.0,   42.5,  999.0,  999.0,  999.0,   41.6,  999.0,   42.4,  999.0,  999.0,  999.0,   30.0,  999.0,  999.0,  999.0,   41.6,  999.0,  999.0,  999.0,  999.0,  999.0,  999.0,  999.0,  999.0
2001/02/18 05:00,  999.0,    3.6,    1.5,    0.4,    2.0,    3.1,    2.0,   -1.8,    0.7,   -1.4,  999.0,  999.0,  999.0,  999.0,  999.0,  999.0,  999.0,  999.0,   14.1,   14.6,   14.4,   16.4,  999.0,  999.0,  999.0,  999.0,  999.0,  999.0,  999.0,  999.0,  999.0,   23.9,  999.0,  999.0,  999.0,  999.0,  999.0,  999.0,  999.0,  999.0,  999.0,  999.0,  999.0,  999.0,  999.0,  999.0,  999.0,  999.0,  999.0,  999.0,  999.0,  999.0,  999.0,  999.0,  999.0,  999.0,  999.0,  999.0
2001/02/18 05:10,  999.0,   -2.1,    3.6,    3.3,    2.7,    5.3,   -0.4,    8.1,    4.1,    3.2,    0.7,  999.0,  999.0,  999.0,  999.0,  999.0,  999.0,  999.0,  999.0,   19.6,   21.0,   20.7,  999.0,  999.0,   16.9,  999.0,  999.0,  999.0,  999.0,  999.0,  999.0,  999.0,  999.0,  999.0,  999.0,  999.0,  999.0,  999.0,  999.0,  999.0,  999.0,  999.0,  999.0,  999.0,  999.0,  999.0,  999.0,  999.0,  999.0,  999.0,  999.0,  999.0,  999.0,  999.0,  999.0,  999.0,  999.0,  999.0
2001/02/18 05:20,  999.0,  999.0,  999.0,   11.8,   10.3,   10.4,   10.1,   12.1,   11.8,    8.4,   10.9,    9.8,   10.4,   12.1,   12.1,   21.4,  999.0,  999.0,  999.0,   15.4,   17.1,   14.7,   14.4,  999.0,  999.0,  999.0,  999.0,  999.0,   15.6,  999.0,  999.0,  999.0,  999.0,  999.0,   20.7,  999.0,  999.0,  999.0,   20.3,  999.0,  999.0,  999.0,  999.0,   21.3,  999.0,  999.0,  999.0,  999.0,   21.3,  999.0,   20.1,  999.0,   20.1,  999.0,   20.3,  999.0,   20.3,  999.0
2001/02/18 05:30,  999.0,   11.6,   11.6,    9.9,    9.3,   10.2,   10.1,   10.7,   12.2,   10.5,   11.6,   11.0,   11.2,   12.1,  999.0,  999.0,  999.0,  999.0,  999.0,  999.0,   15.6,  999.0,  999.0,  999.0,  999.0,  999.0,  999.0,  999.0,  999.0,  999.0,  999.0,  999.0,  999.0,  999.0,  999.0,  999.0,  999.0,  999.0,  999.0,  999.0,  999.0,  999.0,  999.0,  999.0,  999.0,  999.0,  999.0,  999.0,  999.0,  999.0,  999.0,  999.0,  999.0,  999.0,  999.0,  999.0,  999.0,  999.0
2001/02/18 05:40,  999.0,   10.8,   11.4,    4.6,    5.3,    7.3,    9.0,    9.1,    8.4,    5.7,    5.3,    8.7,   10.7,   10.1,   10.7,   11.4,   13.2,   14.8,  999.0,    8.9,    9.3,   10.4,   20.2,  999.0,  999.0,  999.0,  999.0,   20.8,   21.2,   19.6,  999.0,   19.6,   21.6,  999.0,   19.6,  999.0,   19.9,  999.0,   19.8,   20.8,   20.0,   20.3,   20.3,  999.0,  999.0,  999.0,  999.0,   20.8,  999.0,   20.2,  999.0,   20.5,   20.0,   19.1,  999.0,   20.3,   20.4,  999.0
2001/02/18 05:50,  999.0,  999.0,    7.1,    8.1,    3.3,    3.1,    9.4,    8.4,    6.9,    4.9,    7.5,    9.8,    9.9,    5.6,    8.6,    9.3,    8.9,    9.7,   10.5,    9.5,  999.0,  999.0,  999.0,  999.0,  999.0,  999.0,  999.0,  999.0,  999.0,  999.0,  999.0,  999.0,   21.0,   21.7,   22.1,  999.0,  999.0,  999.0,   21.9,   22.5,  999.0,   22.1,  999.0,  999.0,   21.8,   22.6,  999.0,  999.0,  999.0,   22.3,  999.0,  999.0,   22.7,  999.0,   22.6,  999.0,   22.5,  999.0
2001/02/18 06:00,  999.0,    9.6,   10.5,   10.3,   10.4,    9.6,    9.5,   10.2,   10.0,   10.2,    9.6,    8.4,    8.0,    8.7,   10.0,    9.7,   10.8,   10.0,   14.2,   17.3,   17.1,   17.3,   16.9,   17.1,   16.4,   16.0,   16.4,   16.8,   18.0,   17.9,   22.7,   20.2,   22.6,   23.2,   26.2,   27.0,   27.6,   29.9,   28.9,   35.2,   36.0,   34.2,   33.1,  999.0,  999.0,  999.0,  999.0,  999.0,   42.1,  999.0,  999.0,  999.0,  999.0,   42.1,  999.0,  999.0,  999.0,  999.0
2001/02/18 06:10,  999.0,    9.1,    8.0,    7.2,    6.4,    7.2,    6.8,   11.2,    8.2,   14.4,   15.6,   15.0,   14.9,   15.9,   15.5,   16.0,   15.6,    6.8,    6.2,    4.3,   13.2,    2.2,    4.2,    5.2,   13.5,    7.0,   16.4,    2.9,    2.9,    2.6,    3.2,    3.8,    3.0,    3.2,   -3.1,    1.6,   16.7,   -4.4,   -4.9,   -3.0,    3.5,    8.7,    2.5,    1.2,    3.2,    4.2,    4.3,    3.8,    4.1,    6.8,    6.0,    6.8,  999.0,  999.0,  999.0,  999.0,  999.0,  999.0
2001/02/18 06:20,  999.0,    1.0,    0.9,    1.9,    7.2,    8.2,    7.9,    7.7,   10.3,   11.7,   13.8,   14.6,   13.8,   13.9,   14.0,   14.9,   15.9,   17.2,   17.8,   18.2,   18.8,   19.3,   19.1,  999.0,  999.0,  999.0,  999.0,  999.0,  999.0,  999.0,  999.0,  999.0,  999.0,  999.0,  999.0,  999.0,  999.0,  999.0,  999.0,  999.0,  999.0,  999.0,  999.0,  999.0,  999.0,  999.0,  999.0,  999.0,  999.0,  999.0,  999.0,  999.0,  999.0,  999.0,  999.0,  999.0,  999.0,  999.0
2001/02/18 06:30,  999.0,  999.0,   -5.8,  999.0,    2.5,   12.0,   14.0,   11.1,   12.6,   15.9,  999.0,  999.0,  999.0,  999.0,   12.1,  999.0,   21.2,  999.0,   14.6,  999.0,  999.0,  999.0,  999.0,  999.0,  999.0,  999.0,  999.0,  999.0,  999.0,  999.0,  999.0,  999.0,  999.0,  999.0,  999.0,  999.0,  999.0,  999.0,  999.0,  999.0,  999.0,  999.0,  999.0,  999.0,  999.0,  999.0,  999.0,  999.0,  999.0,  999.0,  999.0,  999.0,  999.0,  999.0,  999.0,  999.0,  999.0,  999.0
2001/02/18 06:40,  999.0,  999.0,  999.0,  999.0,  999.0,    6.4,    9.6,   12.4,   13.2,   15.3,   11.4,   21.0,  999.0,  999.0,  999.0,   21.1,  999.0,  999.0,   17.8,   15.1,  999.0,  999.0,  999.0,  999.0,  999.0,  999.0,  999.0,  999.0,  999.0,  999.0,  999.0,  999.0,  999.0,  999.0,  999.0,  999.0,  999.0,  999.0,  999.0,  999.0,  999.0,  999.0,  999.0,  999.0,  999.0,  999.0,  999.0,  999.0,  999.0,  999.0,  999.0,  999.0,  999.0,  999.0,  999.0,  999.0,  999.0,  999.0
2001/02/18 06:50,  999.0,    3.3,    6.2,    3.4,    3.7,    7.5,   15.6,    9.7,   11.9,  999.0,  999.0,   11.4,   13.5,   13.2,   13.0,  999.0,  999.0,  999.0,   18.2,   17.3,  999.0,   22.4,  999.0,   23.1,   23.5,   23.4,   23.5,   23.7,   24.1,   23.4,   24.5,  999.0,  999.0,  999.0,  999.0,  999.0,   26.2,  999.0,  999.0,  999.0,  999.0,  999.0,  999.0,  999.0,  999.0,  999.0,  999.0,  999.0,  999.0,  999.0,  999.0,  999.0,  999.0,  999.0,  999.0,  999.0,  999.0,  999.0
2001/02/18 07:00,  999.0,  999.0,    2.8,  999.0,    3.2,    3.6,    5.0,    8.7,  999.0,   10.9,  999.0,   11.2,   11.9,  999.0,  999.0,  999.0,  999.0,  999.0,  999.0,  999.0,  999.0,  999.0,  999.0,  999.0,  999.0,  999.0,  999.0,  999.0,  999.0,  999.0,  999.0,  999.0,  999.0,  999.0,  999.0,  999.0,  999.0,  999.0,  999.0,  999.0,  999.0,  999.0,  999.0,  999.0,  999.0,  999.0,  999.0,  999.0,  999.0,  999.0,  999.0,  999.0,  999.0,  999.0,  999.0,  999.0,  999.0,  999.0
2001/02/18 07:10,  999.0,  999.0,   -3.6,  999.0,    3.1,    7.5,    7.5,    8.7,    9.7,   10.5,   11.2,   12.8,   13.6,  999.0,  999.0,   11.0,   13.0,   15.1,   13.5,   14.0,  999.0,  999.0,  999.0,  999.0,   15.2,  999.0,  999.0,  999.0,  999.0,  999.0,  999.0,  999.0,  999.0,  999.0,    6.5,    6.5,  999.0,  999.0,  999.0,  999.0,  999.0,    1.6,    0.8,    0.6,   -0.1,    0.3,  999.0,    0.6,  999.0,    0.8,    1.3,    0.5,  999.0,  999.0,    0.5,  999.0,  999.0,  999.0
2001/02/18 07:20,  999.0,    1.1,    3.4,    1.6,    7.1,    6.9,    7.8,    8.5,    9.9,   10.8,    9.8,   11.1,   12.7,  999.0,   12.7,   11.3,   13.7,   19.1,   11.8,   11.7,  999.0,   16.7,   14.7,  999.0,   11.2,  999.0,   10.3,    8.2,    6.4,    7.5,  999.0,    5.1,    4.8,    3.8,    2.5,    4.0,    1.9,    1.0,    1.5,    0.7,  999.0,    0.7,    1.0,    0.5,    1.0,    1.0,    1.1,  999.0,    0.8,    0.9,    0.5,    0.5,    0.4,    0.1,  999.0,    0.5,    0.4,    0.4
2001/02/18 07:30,  999.0,  999.0,  999.0,  999.0,    5.2,    5.7,    6.6,    7.9,    9.1,    9.9,    9.9,    8.6,    9.0,  999.0,  999.0,   11.9,  999.0,  999.0,    8.3,   12.2,   11.7,   13.0,   13.9,   11.6,   11.1,   10.2,    8.8,    7.6,    7.6,    3.8,    2.4,  999.0,  999.0,  999.0,    0.4,  999.0,    0.8,    0.7,  999.0,    0.9,    0.5,    0.5,  999.0,    0.7,    0.5,  999.0,   -0.1,    0.9,    0.9,  999.0,    1.1,    0.9,    1.0,    1.4,    1.0,    1.7,  999.0,  999.0
2001/02/18 07:40,  999.0,    0.3,    1.5,    0.9,    6.9,    7.6,    8.3,    8.8,    9.0,    8.3,    9.7,   10.7,   10.3,   10.4,   10.1,   11.5,  999.0,    9.4,    9.8,   11.6,   14.5,  999.0,  999.0,    9.8,    8.9,    6.2,  999.0,    7.5,  999.0,    5.2,  999.0,    2.7,  999.0,    0.6,  999.0,    0.4,  999.0,    0.4,    0.4,    0.8,    0.8,  999.0,    0.1,    0.1,    0.5,    0.7,    0.7,    0.7,    0.5,    0.8,  999.0,    1.1,    0.6,    0.7,    1.9,    1.0,    0.6,    0.8
2001/02/18 07:50,  999.0,    5.3,    5.6,    6.1,    6.6,    7.7,    8.0,    9.2,    9.6,    9.2,    9.2,    9.6,   10.3,   11.4,   10.2,  999.0,  999.0,   11.9,   11.0,  999.0,   17.3,  999.0,   12.2,  999.0,   10.3,  999.0,    8.4,  999.0,   10.6,  999.0,    3.6,    4.9,  999.0,    3.1,    0.9,    0.8,    0.8,  999.0,  999.0,    1.3,  999.0,  999.0,    1.4,    0.1,   -0.2,    1.9,  999.0,  999.0,    0.7,  999.0,    1.4,    1.2,  999.0,    1.7,    1.6,    1.2,    0.6,    0.9
2001/02/18 08:00,  999.0,    6.1,    6.8,    6.0,    6.0,    6.6,    6.9,    8.0,    8.4,   10.7,   10.1,   10.0,    9.8,   10.6,   11.4,   11.1,   13.1,   14.0,    9.8,   18.4,   17.0,   13.4,   15.1,   13.0,  999.0,   10.1,    9.1,  999.0,    6.7,    7.0,    5.5,    4.5,    1.3,    1.8,    1.5,  999.0,    1.9,    0.9,  999.0,    0.4,    0.4,  999.0,    0.9,    1.1,    0.5,  999.0,  999.0,    0.9,    1.2,   -0.2,    0.9,    1.5,  999.0,  999.0,    0.3,    0.5,  999.0,  999.0
2001/02/18 08:10,  999.0,    2.3,    7.3,    6.7,    6.8,    9.8,    8.8,    8.1,    8.1,    9.8,   10.4,    9.8,    9.8,    9.2,   10.2,  999.0,   19.5,   17.7,   16.6,   17.1,  999.0,   13.5,  999.0,  999.0,  999.0,    9.7,   10.6,    5.5,    7.9,  999.0,    5.2,  999.0,    2.0,    3.1,    1.5,    2.2,    1.3,  999.0,  999.0,    1.2,    0.5,    0.5,    0.3,    0.5,    1.2,    1.5,    0.8,  999.0,    1.0,  999.0,   -0.2,  999.0,    0.8,   -0.1,    1.0,  999.0,  999.0,    0.4
2001/02/18 08:20,  999.0,    5.9,    6.0,    6.8,  999.0,  999.0,    8.0,    8.6,    9.4,   10.1,   11.2,   11.1,  999.0,  999.0,   11.5,  999.0,  999.0,  999.0,  999.0,   15.1,  999.0,  999.0,  999.0,  999.0,  999.0,  999.0,  999.0,  999.0,    5.0,    3.8,  999.0,    2.0,    1.1,    0.8,  999.0,  999.0,    1.3,  999.0,  999.0,    1.3,  999.0,    1.1,  999.0,    0.1,  999.0,   -0.2,  999.0,  999.0,  999.0,  999.0,  999.0,  999.0,  999.0,  999.0,  999.0,  999.0,  999.0,  999.0
2001/02/18 08:30,  999.0,    5.9,    5.9,    5.9,    7.1,    7.6,    7.7,    8.8,    9.4,    9.9,   11.1,  999.0,  999.0,  999.0,  999.0,  -21.4,  -22.8,  999.0,  999.0,  999.0,  999.0,  999.0,  -29.4,  -29.3,  -31.2,  -34.8,  999.0,  999.0,  -35.6,  -36.7,  999.0,  999.0,  -39.7,  999.0,  -41.8,  -42.9,  -41.1,  999.0,  -42.6,  -41.9,  -42.4,  999.0,  999.0,  999.0,  -41.7,  -41.4,  -42.6,  999.0,  -41.9,  -42.0,  999.0,  -42.2,  -41.5,  -41.8,  -42.6,  999.0,  -42.3,  -41.9
2001/02/18 08:40,  999.0,    5.0,    5.2,    7.3,    6.9,    6.1,    7.8,    9.1,   10.5,  999.0,  999.0,  999.0,  999.0,  999.0,  -21.7,  -21.3,  -22.3,  -23.9,  -25.1,  999.0,  999.0,  -28.5,  -30.1,  -30.9,  -32.0,  -33.5,  -34.4,  -34.0,  999.0,  999.0,  -37.5,  -40.2,  -41.7,  -43.0,  -40.7,  999.0,  -42.0,  -41.0,  -42.2,  -41.5,  999.0,  -41.5,  999.0,  -41.5,  999.0,  -42.2,  -41.8,  999.0,  999.0,  999.0,  -41.9,  -41.8,  -41.9,  -42.5,  -42.1,  999.0,  -41.2,  -41.7
2001/02/18 08:50,  999.0,    4.9,    5.9,    7.1,    6.5,    6.3,    6.9,    7.7,    8.5,  999.0,  999.0,  999.0,  999.0,  999.0,  999.0,  999.0,  999.0,  999.0,  999.0,  999.0,  999.0,  -31.5,  -32.6,  -32.7,  -34.5,  -36.7,  999.0,  999.0,  -39.7,  -40.7,  -41.7,  -41.9,  999.0,  -42.3,  -42.9,  999.0,  999.0,  -41.3,  -42.7,  999.0,  999.0,  -42.4,  -42.0,  -42.3,  999.0,  -42.2,  -41.1,  -42.1,  -41.8,  -41.5,  -41.8,  -42.0,  -40.8,  -41.9,  -42.1,  -41.8,  -41.7,  -41.4
2001/02/18 09:00,  999.0,    5.7,    6.7,    7.8,    7.4,    7.4,    7.7,    8.7,    8.9,    8.5,  999.0,  999.0,  999.0,  999.0,  999.0,  999.0,  999.0,  999.0,  999.0,  999.0,  999.0,  -30.9,  999.0,  -31.6,  -33.1,  -30.8,  -32.9,  -35.3,  -34.9,  999.0,  -38.9,  -38.4,  -41.0,  -41.6,  -40.9,  -42.0,  -42.2,  -42.1,  -42.0,  -42.3,  -41.6,  -42.2,  -41.9,  -41.8,  -41.1,  999.0,  -41.4,  -41.9,  -40.9,  -41.6,  -41.9,  999.0,  -42.5,  -41.8,  -41.9,  999.0,  -41.7,  999.0
2001/02/18 09:10,  999.0,    4.4,    6.1,    7.9,    7.7,    5.1,    5.3,    6.2,    7.5,    9.1,    9.7,   11.5,   10.2,  999.0,  999.0,  999.0,  999.0,  999.0,  999.0,  999.0,  999.0,  999.0,  -30.0,  -33.5,  999.0,  -36.0,  -35.9,  -37.8,  -38.5,  -39.7,  -39.8,  -40.6,  -41.7,  -42.0,  -43.1,  999.0,  -41.7,  -41.4,  -41.4,  -41.8,  999.0,  -42.4,  -42.0,  -42.1,  999.0,  -42.6,  -41.7,  -41.8,  -42.0,  -41.7,  999.0,  -42.5,  -41.4,  -40.8,  -41.9,  -41.6,  -41.5,  -41.1
2001/02/18 09:20,  999.0,    4.7,    5.1,    6.7,    6.5,    5.9,    5.6,    6.3,    7.1,    8.1,    7.5,    7.5,    9.0,    9.9,  999.0,  999.0,   11.2,  999.0,  999.0,  999.0,  -27.1,  999.0,  -30.5,  999.0,  999.0,  -34.1,  -35.2,  -37.3,  999.0,  -39.9,  999.0,  -39.2,  999.0,  -42.2,  -42.4,  999.0,  -42.2,  -41.4,  -41.8,  -42.4,  -42.5,  -41.5,  -42.2,  -42.8,  -42.4,  999.0,  999.0,  -41.2,  -41.1,  999.0,  -41.6,  -42.2,  -42.0,  -41.6,  -41.2,  -42.0,  -41.3,  -41.5
2001/02/18 09:30,  999.0,    4.6,    4.6,    5.5,    5.9,    4.3,    6.0,    6.9,    7.0,    7.4,    7.7,    7.2,    8.7,    9.0,    6.9,  999.0,  999.0,  999.0,  999.0,    1.9,  999.0,  999.0,  999.0,  999.0,    9.7,  999.0,  999.0,   33.3,  999.0,  -35.3,  999.0,   41.3,  -20.0,  999.0,  -10.7,  -18.3,   -6.2,  999.0,    0.2,   20.9,  -20.6,    0.1,   -0.1,  -42.2,   -4.8,  -42.2,  -42.4,    7.6,  999.0,   38.9,    4.5,  -30.4,  -19.7,  -33.9,  -40.8,  -41.5,  -42.0,  -42.5
2001/02/18 09:40,  999.0,    3.4,    5.2,    7.3,    5.6,    6.1,    8.2,    8.8,    8.2,    9.3,    9.7,  999.0,  999.0,  999.0,  999.0,  999.0,  999.0,  -12.3,  999.0,  999.0,  -18.5,  999.0,  -29.4,  -31.1,  -32.8,  999.0,  -34.9,  -36.4,  -37.5,  -37.8,  -38.5,  -39.9,  999.0,  -42.8,  999.0,  -42.0,  -41.5,  -41.9,  -41.3,  -41.8,  -41.6,  -42.3,  -42.1,  -41.4,  -42.2,  999.0,  -41.9,  -41.1,  -41.7,  -42.2,  -42.2,  -42.1,  999.0,  999.0,  999.0,  999.0,  999.0,  999.0
2001/02/18 09:50,  999.0,    4.4,    4.7,    5.2,    5.2,    6.8,    6.9,    7.4,    7.2,    7.5,    7.8,    6.7,  999.0,  999.0,  999.0,  999.0,  999.0,  999.0,  999.0,  999.0,  999.0,  999.0,  999.0,  999.0,  999.0,  999.0,  999.0,  999.0,  999.0,  -35.4,  -39.0,  999.0,  -39.9,  999.0,  -41.9,  -40.5,  -40.9,  -41.9,  -41.9,  -41.9,  -41.7,  999.0,  -42.0,  -42.0,  -42.8,  -42.4,  -41.7,  999.0,  999.0,  -41.3,  999.0,  -41.6,  999.0,  999.0,  -41.7,  999.0,  -42.1,  -41.7
2001/02/18 10:00,  999.0,    4.0,    4.3,    3.2,    6.3,    7.1,    7.5,    7.7,    7.3,    8.0,    8.0,    6.8,  999.0,  999.0,  999.0,  999.0,  999.0,  999.0,  999.0,  999.0,  999.0,  999.0,  999.0,  999.0,  999.0,  999.0,  999.0,  999.0,  999.0,  999.0,  999.0,  999.0,  999.0,  999.0,  -42.4,  -41.6,  -41.4,  -41.8,  999.0,  -42.0,  -42.3,  -42.3,  999.0,  -41.6,  -42.6,  999.0,  -41.7,  -41.8,  -41.8,  -42.3,  999.0,  999.0,  -42.7,  -42.0,  999.0,  -41.8,  999.0,  -42.1
2001/02/18 10:10,  999.0,    4.1,    4.9,    7.0,    6.6,    6.8,    6.9,    7.4,    7.5,    7.8,    6.1,  999.0,  999.0,  999.0,  999.0,  999.0,  999.0,  999.0,  999.0,  999.0,  999.0,  999.0,  999.0,  999.0,  999.0,  999.0,  999.0,  999.0,  999.0,  999.0,  999.0,  999.0,  999.0,  999.0,  -41.6,  -42.2,  -42.1,  -41.8,  -42.2,  -42.0,  -41.7,  -41.7,  -42.6,  999.0,  999.0,  -42.0,  -42.2,  -41.8,  -41.5,  -42.0,  -41.9,  -41.4,  -42.7,  -40.9,  -42.0,  -40.9,  -41.9,  -42.0
2001/02/18 10:20,  999.0,    4.6,    5.3,    4.6,    5.4,    6.4,    6.8,    7.4,    7.2,    6.9,    6.5,    6.0,    1.9,    3.4,    5.2,    5.9,    5.3,    2.7,    0.7,    0.3,   -0.5,    1.8,   -0.5,   -2.2,   -3.7,   -4.2,  999.0,  999.0,  999.0,  999.0,  999.0,  999.0,  -42.9,  -41.9,  999.0,  -42.1,  -42.2,  -42.2,  -41.5,  -42.2,  999.0,  -41.8,  -41.6,  -42.3,  999.0,  -42.0,  -41.1,  -41.3,  -41.3,  -41.7,  999.0,  999.0,  -42.8,  -42.6,  999.0,  999.0,  999.0,  -41.9
2001/02/18 10:30,  999.0,    4.7,    5.2,    3.4,    4.3,    5.3,    5.1,    5.7,    5.8,    6.4,    7.6,    7.3,    8.4,    8.9,    8.1,   10.3,   10.2,   11.2,   11.6,   11.4,   11.0,   12.4,   11.3,   12.7,   15.9,   18.3,   16.9,   16.7,   17.6,   12.9,   12.1,   11.3,   10.9,   10.5,    7.0,    7.8,    9.2,   10.8,   12.8,   12.8,    9.8,    8.7,    4.4,   11.8,   10.4,   -7.6,    0.4,    1.2,   -2.7,    1.2,    1.9,  -11.7,   -5.2,  -37.5,   -3.9,  999.0,  -21.5,  999.0
2001/02/18 10:40,  999.0,    2.8,    2.6,    3.6,    2.9,    4.4,    6.3,    9.3,    8.7,   10.1,    9.5,    5.9,    4.4,    4.6,    3.6,    3.6,   -1.4,   -6.5,   -9.0,  -11.0,   -9.1,   -6.0,   -5.5,   -5.3,   -2.6,   -3.1,    7.9,    3.7,   -7.7,   -8.0,   -6.8,   -5.6,  -14.8,    1.0,  999.0,    8.0,    6.3,    5.1,    4.5,    5.2,    8.9,    5.3,    5.1,   10.2,    9.8,   11.1,   10.1,    0.8,    1.0,    0.0,  999.0,   -7.7,  -17.4,    0.7,  999.0,  -16.6,  -17.2,  -16.1
2001/02/18 10:50,  999.0,    6.2,    6.3,    6.6,    4.8,    4.9,    7.2,    8.1,    8.7,   10.1,    9.8,    9.9,   10.6,  999.0,  999.0,  999.0,  999.0,  999.0,  999.0,  999.0,  999.0,  999.0,  999.0,  999.0,  999.0,  999.0,   -8.1,    6.8,  999.0,  999.0,  999.0,  999.0,  999.0,  999.0,  999.0,  999.0,  999.0,    8.4,  999.0,    6.4,    5.9,    5.3,  999.0,    0.6,    2.9,    1.2,    0.4,    1.1,    0.9,  999.0,    1.0,    0.9,    0.8,   -5.7,    2.4,    1.3,  999.0,   -8.5
2001/02/18 11:00,  999.0,    6.0,    7.4,    6.9,    3.8,    6.9,    7.2,    8.1,    8.8,    9.8,   10.9,   12.2,   12.1,   11.1,   11.8,  999.0,    5.4,    6.6,    5.1,    3.1,    1.9,    2.7,    0.4,  999.0,  999.0,  999.0,  999.0,   -0.4,    2.0,  999.0,  999.0,  999.0,  999.0,  999.0,  999.0,  999.0,  999.0,    1.2,  999.0,    1.6,    0.4,    0.5,    0.7,    0.4,    0.4,    0.1,  999.0,    1.1,  999.0,    0.9,    0.8,    0.7,    1.1,  999.0,    0.9,    0.6,  999.0,    1.2
2001/02/18 11:10,  999.0,    7.0,    8.3,    8.5,    7.6,    8.5,    9.3,    8.9,    9.9,    9.8,   10.9,  999.0,   10.2,   10.8,   10.7,  999.0,  999.0,  999.0,  999.0,  999.0,  999.0,    3.5,  999.0,  999.0,   11.0,  999.0,  999.0,  999.0,  999.0,  999.0,    0.7,  999.0,  999.0,  999.0,    0.8,    0.5,  999.0,    0.8,    0.5,    1.1,  999.0,    0.6,    0.3,    1.3,    0.3,  999.0,    1.1,    0.4,    1.0,  999.0,    1.0,    1.1,    0.5,    1.1,    1.3,  999.0,  999.0,    0.3
2001/02/18 11:20,  999.0,    7.9,    7.6,   10.2,   11.1,    6.9,  999.0,    9.9,    9.3,   10.0,    9.4,   10.9,   11.5,   10.8,   10.9,    9.1,  999.0,  999.0,  999.0,    3.0,  999.0,  999.0,   12.4,   10.0,    8.9,  999.0,    7.0,    6.0,    4.7,  999.0,    2.6,  999.0,    0.9,    0.7,    0.7,    1.0,    0.4,    1.2,    1.0,    1.6,    0.7,    1.3,    1.3,    0.9,    0.5,    0.3,    0.6,    0.3,  999.0,    0.4,  999.0,    1.1,    0.8,    0.5,    1.5,    1.6,    0.8,    0.6
2001/02/18 11:30,  999.0,  999.0,    8.5,   10.4,   12.0,    5.2,    4.2,    0.1,    5.2,  999.0,    9.7,   10.8,   10.2,   11.0,    9.2,  999.0,  999.0,  999.0,  999.0,  999.0,   16.2,   14.8,   -0.2,  999.0,  999.0,   -1.9,   10.0,    7.0,    7.2,    4.9,  999.0,    2.9,   -4.5,   -3.4,    1.2,    1.7,   -4.2,  999.0,  999.0,    0.9,    1.6,  999.0,   -0.4,    1.6,    1.8,  999.0,  999.0,  999.0,    1.0,  999.0,    0.7,    0.4,    0.9,    0.1,  999.0,    0.7,    0.5,    0.3
2001/02/18 11:40,  999.0,    2.8,    2.4,    3.3,    3.5,    2.8,    0.4,    3.4,    5.0,    5.7,    8.5,    8.2,    8.6,    9.2,    9.8,   10.0,    9.7,   11.8,   12.3,   13.8,   14.8,   16.0,   16.0,   17.1,   18.7,   18.2,   19.0,   19.9,   14.7,   16.7,   18.4,   19.5,   20.4,   22.7,   24.1,   24.5,   23.8,   19.2,   21.3,   24.3,   23.9,   21.9,   18.5,   13.0,   12.7,   29.6,  999.0,   28.2,   28.8,   30.2,  999.0,  999.0,  999.0,  999.0,  999.0,  999.0,  999.0,  999.0
2001/02/18 11:50,  999.0,   11.5,   11.5,   12.1,   12.1,   12.3,   12.5,   12.9,   13.1,   13.4,   14.0,   14.0,   13.3,   12.7,   12.0,   11.2,   10.9,   10.4,   10.4,   10.3,   10.8,   10.4,   11.5,   11.8,   12.6,   13.2,   12.4,   13.2,   13.1,   12.9,   13.6,   14.7,   14.8,   14.9,   14.9,   14.5,   14.0,   14.2,   14.3,   14.7,   15.2,   15.9,   16.0,   15.2,   14.3,   18.6,   19.8,   13.9,  999.0,  999.0,  999.0,   24.0,  999.0,  999.0,  999.0,  999.0,  999.0,  999.0
2001/02/18 12:00,  999.0,   10.5,   11.1,   10.8,   10.9,   10.9,   10.7,   10.8,   11.0,   11.2,   11.4,   11.7,   12.3,   12.6,   12.4,   11.3,   10.8,   10.5,   10.2,   10.3,   11.4,   11.2,   11.9,   12.5,   11.4,   11.6,   11.7,   11.3,   10.0,    9.8,    7.8,    8.3,    8.1,   11.5,   12.6,    8.7,   10.4,   11.8,    8.7,    8.0,   13.8,   11.7,    9.1,   14.5,   18.3,   27.5,   27.6,   28.5,   29.3,   31.4,   32.3,  999.0,  999.0,  999.0,  999.0,   21.0,   20.5,  999.0
2001/02/18 12:10,  999.0,    9.9,   10.2,    9.7,    9.4,   10.5,   10.9,   11.0,   10.8,   10.9,   11.3,   13.1,   15.1,   16.0,   15.3,   15.0,   14.4,   14.0,   13.6,   13.8,   14.3,   14.0,   14.0,   14.0,   14.8,   15.4,   15.5,   14.5,   15.9,   17.2,   18.3,   18.4,   19.6,   19.6,   19.9,   18.1,   18.8,   18.6,   14.4,   13.8,   13.1,   15.8,   18.5,   19.8,   20.1,   20.5,   21.7,   22.8,   19.8,   24.2,   21.3,   22.2,   23.4,   23.4,   23.0,   22.9,  999.0,  999.0
2001/02/18 12:20,  999.0,    3.5,    3.9,   -0.1,   -0.0,   -2.3,   -3.6,   -3.5,    1.0,    4.3,    7.8,   11.8,   12.6,   12.8,   11.8,   13.7,   15.2,   15.2,   17.0,   18.7,   17.5,   16.5,   16.4,   16.1,   16.5,   16.4,   17.5,   17.1,   17.5,   18.1,   18.2,   18.4,   18.4,   18.0,   17.7,   16.4,   15.0,   13.9,   12.9,   12.6,   10.7,   10.5,   10.6,   10.7,   10.5,    9.7,    8.8,    7.3,    7.1,    6.9,    8.2,    8.7,    9.5,   10.2,   10.8,   11.6,   11.7,   13.7
2001/02/18 12:30,  999.0,    2.3,    7.0,   10.0,    8.9,    8.7,    9.1,   10.8,   12.4,   13.5,   14.5,   14.9,   14.4,   15.0,   15.5,   16.7,   17.1,   16.9,   17.6,   18.8,   20.0,   22.0,   23.0,   23.6,   23.2,   23.6,   24.5,   23.3,   19.9,   21.3,   21.9,   21.5,   16.2,   19.8,   18.9,   14.2,   17.5,   10.7,    8.3,    6.9,   15.0,   15.1,   16.0,   18.6,   19.2,   28.3,   27.8,   27.3,   25.2,   24.2,   24.0,   24.1,   22.6,   22.5,   23.2,   23.4,   23.5,   22.9
2001/02/18 12:40,  999.0,    9.1,   11.1,   11.9,   11.9,   12.6,   12.1,   11.9,   12.6,   13.9,   14.8,   14.4,   13.4,   12.8,   12.6,   13.3,   13.8,   13.6,   13.8,   14.1,   14.4,   15.5,   15.6,   15.7,   15.9,   16.6,   17.8,   18.0,   17.2,   17.5,   17.9,   18.7,   18.3,   18.7,   19.1,   18.9,   19.5,   20.7,   21.3,   22.7,   22.0,   24.7,   27.8,   28.7,   30.1,   33.4,   25.9,   25.0,   25.2,   25.2,   25.4,   24.6,   24.7,   24.4,   24.8,   24.5,   24.1,   24.0
2001/02/18 12:50,  999.0,  999.0,   10.6,    6.1,    6.6,    6.6,   12.2,    6.3,   10.1,   16.1,   11.7,   18.4,   19.0,   19.2,   20.6,   20.3,   21.3,   20.8,   20.5,   20.2,   20.9,   21.7,   20.0,   20.7,   21.6,   18.6,   20.0,   18.8,  999.0,  999.0,   24.5,  999.0,   24.1,   24.1,  999.0,  999.0,   21.1,   24.6,   21.4,   17.4,   13.9,   16.5,   30.9,   35.2,   35.0,   24.0,   23.1,   20.1,   18.6,   17.8,   17.6,   17.3,   16.8,   16.9,   17.2,   17.5,   18.2,   18.4
2001/02/18 13:00,  999.0,    9.4,   11.2,   12.4,   14.4,   14.2,   13.9,   14.6,   15.0,   14.1,  999.0,  999.0,   13.0,   17.4,  999.0,  999.0,  999.0,  999.0,  999.0,  999.0,  999.0,  999.0,  999.0,  999.0,  999.0,  999.0,  999.0,  999.0,  999.0,  999.0,  999.0,  999.0,  999.0,  999.0,  999.0,  999.0,  999.0,  999.0,  999.0,  999.0,  999.0,  999.0,  999.0,  999.0,  999.0,  999.0,  999.0,  999.0,  999.0,  999.0,  999.0,  999.0,  999.0,  999.0,  999.0,  999.0,  999.0,  999.0
2001/02/18 13:10,  999.0,    9.1,   11.0,   12.2,   13.2,   14.6,   14.3,   14.3,   17.2,   22.2,  999.0,  999.0,  999.0,   15.5,   18.2,  999.0,  999.0,  999.0,  999.0,  999.0,   14.7,  999.0,   12.2,   11.7,   10.1,    9.4,  999.0,  999.0,    6.2,  999.0,    4.3,  999.0,  999.0,  999.0,  999.0,  999.0,  999.0,  999.0,  999.0,  999.0,  999.0,  999.0,  999.0,  999.0,  999.0,  -18.1,  999.0,  999.0,  999.0,  999.0,  999.0,  999.0,  999.0,  999.0,  -17.7,  -17.6,  -16.6,  -15.0
2001/02/18 13:20,  999.0,    9.9,   11.1,   12.2,   12.9,   12.8,   16.6,   16.1,   13.0,   17.2,  999.0,  999.0,   21.3,  999.0,  999.0,   22.2,   21.5,  999.0,  999.0,  999.0,   13.8,   14.2,  999.0,  999.0,  999.0,  999.0,  999.0,  999.0,  999.0,  999.0,  999.0,  999.0,  999.0,  999.0,  999.0,  999.0,  999.0,  999.0,  999.0,  999.0,  999.0,  999.0,  999.0,  999.0,  999.0,  999.0,  999.0,  999.0,  999.0,  999.0,  999.0,  999.0,  999.0,  999.0,  999.0,  999.0,  999.0,  999.0
2001/02/18 13:30,  999.0,   11.8,   12.4,   14.5,   12.6,   12.3,    9.8,   -1.1,   -3.6,    4.8,   -7.0,   21.4,  -10.7,    5.1,  -12.3,  999.0,  999.0,  999.0,  999.0,  999.0,  999.0,  999.0,  999.0,  999.0,  999.0,  999.0,  999.0,  999.0,  999.0,  999.0,  999.0,  999.0,  999.0,  999.0,  999.0,  999.0,  999.0,  999.0,  999.0,  999.0,  999.0,  999.0,  999.0,  999.0,  999.0,  999.0,  999.0,  999.0,  999.0,  999.0,  999.0,  999.0,  999.0,  999.0,  999.0,  999.0,  999.0,  999.0
2001/02/18 13:40,  999.0,   12.1,   11.8,   11.7,   11.8,    4.4,    0.2,    0.6,    6.1,    1.0,   -0.9,  999.0,   -6.9,  -10.1,  -10.5,  -12.5,  -13.1,  -13.4,  -13.8,  -15.1,   -9.8,  999.0,   -9.4,  -22.4,  -23.5,  -10.0,  999.0,  999.0,  999.0,  999.0,  -31.2,  999.0,  999.0,  999.0,  999.0,  999.0,  999.0,  999.0,  999.0,  999.0,  999.0,  999.0,  999.0,  -13.2,  -10.2,  999.0,  999.0,  999.0,  999.0,  999.0,  999.0,  999.0,  999.0,  999.0,  999.0,  999.0,  999.0,  999.0
2001/02/18 13:50,  999.0,    9.6,   12.2,    0.5,    0.4,    0.5,    1.9,   -0.2,   -1.3,   -2.3,   -2.1,   -2.6,   -3.2,  999.0,  999.0,  999.0,  999.0,  999.0,  999.0,  999.0,  999.0,  999.0,  999.0,  999.0,  999.0,  999.0,  999.0,  999.0,  999.0,  999.0,  999.0,  999.0,  999.0,  999.0,  999.0,  999.0,  999.0,  999.0,  999.0,  999.0,  999.0,  999.0,  999.0,  999.0,  999.0,  999.0,  999.0,  999.0,  999.0,  999.0,  999.0,  999.0,  999.0,  999.0,  999.0,  999.0,  999.0,  999.0
2001/02/18 14:00,  999.0,    3.1,    0.5,    0.7,    0.9,    0.5,    0.2,    0.5,   -0.2,   -1.5,    1.9,    1.9,   -1.7,   -0.0,   -4.7,  999.0,  999.0,  999.0,  999.0,  999.0,  -14.2,  -14.9,  999.0,  999.0,  999.0,  999.0,  999.0,  999.0,  999.0,  999.0,  999.0,  999.0,  999.0,  999.0,  999.0,  999.0,  999.0,  -33.3,  999.0,  999.0,  -35.2,  999.0,  999.0,  999.0,  999.0,  999.0,  999.0,    4.0,  999.0,  999.0,  999.0,  999.0,    1.0,  999.0,    0.9,    0.7,  999.0,  999.0
2001/02/18 14:10,  999.0,    5.7,    6.7,   -0.1,   -0.1,   -0.1,    0.3,   -0.3,    0.3,  999.0,  999.0,   -0.8,    4.2,    3.3,    3.7,    2.4,    1.4,  999.0,    2.7,  999.0,  999.0,  999.0,  999.0,  999.0,  999.0,  999.0,  999.0,  999.0,  999.0,  -23.0,  999.0,  999.0,  999.0,  999.0,  999.0,  999.0,  999.0,  -36.5,  -37.4,  -38.3,  999.0,  999.0,  999.0,  999.0,  -41.1,  -42.4,  -42.1,  -41.4,  999.0,  999.0,  999.0,  999.0,  -41.1,  999.0,  -41.4,  -41.5,  999.0,  999.0
2001/02/18 14:20,  999.0,    8.2,    3.2,    6.1,   -0.8,    0.1,   -0.6,    0.2,   -0.2,  999.0,   -0.4,   -3.3,   -3.4,    5.1,   -5.1,  999.0,  999.0,  -10.6,  999.0,  999.0,  999.0,  999.0,  999.0,  999.0,  999.0,  999.0,  999.0,  999.0,  999.0,  999.0,  999.0,  999.0,  999.0,  999.0,  999.0,  999.0,  999.0,  999.0,  999.0,  999.0,  999.0,  999.0,  999.0,  999.0,  999.0,  999.0,  999.0,  999.0,  999.0,  999.0,  999.0,  999.0,  999.0,  999.0,  999.0,  999.0,  999.0,  999.0
2001/02/18 14:30,  999.0,    5.6,    5.6,    0.3,    5.9,    5.6,    0.3,    0.6,    0.2,  999.0,    6.3,   -1.8,    5.1,  999.0,  999.0,  999.0,  999.0,  999.0,  999.0,  999.0,  999.0,  999.0,  999.0,  999.0,  999.0,  999.0,  999.0,  999.0,  999.0,  999.0,  999.0,  999.0,  999.0,  999.0,  999.0,  999.0,  999.0,  999.0,  999.0,  999.0,  999.0,  999.0,  999.0,  999.0,  999.0,  999.0,  999.0,  999.0,  999.0,  999.0,  999.0,  999.0,  999.0,  999.0,  999.0,  999.0,  999.0,  999.0
2001/02/18 14:40,  999.0,    6.2,    7.4,    9.1,    9.2,    8.6,    8.3,    7.6,   10.2,  999.0,  999.0,  999.0,   15.4,  999.0,   14.0,  999.0,  999.0,  -11.5,  999.0,  999.0,  999.0,  999.0,  999.0,  999.0,  999.0,  999.0,  999.0,  999.0,  999.0,  999.0,  999.0,  999.0,  999.0,  999.0,  999.0,  999.0,  999.0,  999.0,  999.0,  999.0,  999.0,  999.0,  999.0,  999.0,  999.0,  999.0,  999.0,  999.0,  999.0,  999.0,  999.0,  999.0,  999.0,  999.0,  999.0,  999.0,  999.0,  999.0
2001/02/18 14:50,  999.0,    1.5,    2.5,    3.8,    6.8,    6.1,    6.5,    6.5,    5.2,    6.4,    6.1,    3.4,    4.4,    3.9,    4.3,    5.6,    5.0,   17.4,   15.4,   17.4,   15.5,   23.4,   -6.8,   -7.0,  -10.4,  -12.5,  999.0,  -14.9,  999.0,  -12.7,   33.8,   34.9,  999.0,  999.0,  999.0,  999.0,  999.0,  999.0,  999.0,  999.0,  -14.3,  999.0,  -19.0,  -16.7,  -13.9,  999.0,   38.6,  999.0,  999.0,  -14.0,  999.0,   41.1,   28.9,  999.0,  999.0,   41.8,   41.2,   41.3
2001/02/18 15:00,  999.0,    9.2,    9.9,   10.1,   11.0,   12.6,   10.1,   10.8,   10.5,   10.7,   10.2,    9.8,   11.3,   13.7,   13.7,   13.0,   13.6,   13.8,   14.3,   15.0,   15.2,   16.6,   15.9,   14.3,   16.4,   16.4,   17.0,   16.8,   19.7,   21.6,   26.2,   21.9,   25.1,   29.2,   25.6,   32.0,   26.9,   24.0,  999.0,   24.6,  999.0,   41.9,   31.1,   22.4,   24.1,   24.4,  999.0,   22.8,  999.0,   28.3,  999.0,  999.0,   24.5,  999.0,   26.7,   22.2,   23.9,  999.0
2001/02/18 15:10,  999.0,    9.1,   10.1,   12.2,   13.4,   13.5,   13.4,   13.0,   11.5,   11.1,   10.3,   11.1,   11.6,   11.3,   11.3,    9.0,   10.3,   12.4,   14.1,   15.4,   15.4,   15.8,   16.3,   16.6,   16.1,   15.6,   17.0,   18.7,   17.4,   16.9,   17.4,   16.5,   14.6,   14.4,   14.9,   13.4,   12.4,   13.8,   15.0,   12.8,   11.8,   12.9,   13.3,   13.2,   13.3,   15.0,   14.1,    2.2,   16.0,   20.5,   20.5,   16.1,  999.0,  999.0,   28.2,  999.0,  999.0,  999.0
2001/02/18 15:20,  999.0,    9.6,   12.0,   12.2,   12.4,   12.3,   12.3,   12.1,   13.4,   13.4,   12.6,   13.1,   14.1,   14.3,   14.0,   14.1,   13.8,   13.4,   13.5,   14.1,   14.8,   15.1,   14.8,   15.5,   16.0,   16.5,   16.6,   16.0,   17.3,   18.6,   18.5,   18.3,   17.8,   17.2,   17.4,   14.7,   14.8,   12.6,   14.3,   12.8,    8.6,   10.2,   16.2,   20.1,   20.5,   20.2,  999.0,   27.4,  999.0,  999.0,  999.0,  999.0,  999.0,   27.7,  999.0,  999.0,   26.1,    7.9
2001/02/18 15:30,  999.0,    5.8,    5.2,    5.2,    4.2,    3.5,    5.5,    5.1,    3.7,    5.8,   12.3,    9.6,   10.8,   12.1,   13.7,   14.7,   18.4,   19.2,   22.7,   22.6,   19.8,   20.6,   19.7,   19.4,  999.0,   21.0,   20.4,  999.0,  999.0,  999.0,   22.6,  999.0,   22.6,  999.0,  999.0,  999.0,  999.0,  999.0,  999.0,  999.0,  999.0,  999.0,  999.0,   25.8,   28.9,   30.1,   30.6,   29.0,   30.0,   29.1,   29.9,   31.7,   32.4,   32.6,  999.0,   30.1,   27.3,   27.0
2001/02/18 15:40,  999.0,   -0.9,    5.5,    7.0,    6.6,    7.3,    7.7,    8.6,    8.6,   11.3,   10.5,   11.1,   12.7,   14.7,   13.2,   13.9,   14.2,   15.0,   15.3,   15.7,   15.6,   16.5,   16.5,   17.3,   17.3,   17.6,   16.5,   17.8,   17.4,   17.3,   18.4,   20.3,   19.0,   17.0,   18.6,   17.8,   17.8,   18.3,   20.8,   22.3,  999.0,   22.8,   23.8,   27.1,   30.2,   32.0,   27.2,  999.0,   28.9,   26.8,   27.0,   27.1,   27.5,   27.0,   27.2,   26.0,   25.1,   24.4
2001/02/18 15:50,  999.0,  999.0,   13.1,   12.8,   13.4,   14.2,   14.6,   15.3,   15.7,   16.0,   16.4,   16.6,   16.7,   16.2,   16.5,   17.1,   16.9,   17.3,   18.3,   19.9,   21.9,   22.0,   19.9,   19.8,   21.4,   20.2,  999.0,  999.0,  999.0,  999.0,  999.0,  999.0,   21.7,  999.0,   22.8,  999.0,  999.0,   24.0,  999.0,  999.0,  999.0,  999.0,  999.0,   27.2,   29.8,   33.3,  999.0,   29.1,   28.4,   27.3,   27.4,   26.7,   27.1,   26.2,   25.8,   26.4,   26.3,   26.9
2001/02/18 16:00,  999.0,    0.9,    0.0,    0.2,    0.2,    1.2,    1.5,    1.1,    1.2,    2.8,    2.2,    1.2,    0.1,  999.0,  999.0,  999.0,  999.0,  999.0,  999.0,  999.0,  999.0,  999.0,  999.0,  999.0,  999.0,  999.0,  999.0,  999.0,  999.0,  999.0,  999.0,  999.0,  999.0,  999.0,  999.0,  999.0,  999.0,  999.0,  999.0,  999.0,  999.0,  999.0,  999.0,  999.0,  999.0,  999.0,  999.0,  999.0,  999.0,  999.0,  999.0,  999.0,  999.0,  999.0,  999.0,  999.0,  999.0,  999.0
2001/02/18 16:10,  999.0,  999.0,   -0.6,    0.7,    0.5,    0.8,    0.3,    1.5,    1.6,    3.6,    2.3,    0.4,  999.0,  999.0,  999.0,  999.0,  999.0,  999.0,  999.0,  999.0,  999.0,  999.0,  999.0,  999.0,  999.0,  999.0,  999.0,  999.0,  999.0,  999.0,  999.0,  999.0,  999.0,  999.0,  999.0,  999.0,  999.0,  999.0,  999.0,  999.0,  999.0,  999.0,  999.0,  999.0,  999.0,  999.0,  999.0,  999.0,  999.0,  999.0,  999.0,  999.0,  999.0,  999.0,  999.0,  999.0,  999.0,  999.0
2001/02/18 16:20,  999.0,   11.2,   13.3,   10.8,   10.3,   10.0,   -0.9,  999.0,    8.7,   14.7,   15.4,   14.6,   21.8,   24.3,   26.9,   28.2,  999.0,  999.0,  999.0,  999.0,  999.0,  999.0,  999.0,  999.0,  999.0,  999.0,  999.0,  999.0,  999.0,  999.0,  999.0,  999.0,  999.0,  999.0,  999.0,  999.0,  999.0,  999.0,  999.0,  999.0,  999.0,  999.0,  999.0,  999.0,  999.0,  999.0,  999.0,  999.0,  999.0,   29.4,   29.1,   28.8,   28.0,   28.5,   28.0,   28.3,   28.8,   28.8
2001/02/18 16:30,  999.0,  999.0,   15.6,   14.3,   12.9,   16.8,  999.0,  999.0,   14.2,   13.9,   14.2,   14.0,   14.2,   13.8,   15.9,   16.7,  999.0,  999.0,  999.0,  999.0,  999.0,  999.0,  999.0,  999.0,  999.0,  999.0,  999.0,  999.0,  999.0,  999.0,  999.0,  999.0,  999.0,  999.0,  999.0,  999.0,  999.0,  999.0,  999.0,  999.0,  999.0,  999.0,   24.1,   25.5,  999.0,  999.0,  999.0,  999.0,  999.0,   28.3,   28.8,   30.2,   30.4,  999.0,   29.8,   30.2,   28.8,   30.4
2001/02/18 16:40,  999.0,   12.2,   13.8,   13.3,    0.1,   10.4,    0.5,    3.4,  999.0,   15.4,  999.0,  999.0,  999.0,  999.0,  999.0,  999.0,  999.0,  999.0,  999.0,  999.0,  999.0,  999.0,  999.0,  999.0,  999.0,  999.0,  999.0,  999.0,  999.0,  999.0,  999.0,  999.0,   31.2,  999.0,  999.0,  999.0,  999.0,  999.0,   20.5,  999.0,   33.3,  999.0,  999.0,  999.0,  999.0,  999.0,  999.0,  999.0,   30.9,   30.1,   31.0,   31.2,  999.0,   30.8,  999.0,   30.9,  999.0,   31.1
2001/02/18 16:50,  999.0,  999.0,   10.8,   12.4,   13.7,   14.6,   15.9,  999.0,   14.6,   15.8,  999.0,   20.3,  999.0,  999.0,   14.5,  999.0,  999.0,  999.0,  999.0,  999.0,  999.0,   26.8,  999.0,  999.0,  999.0,   31.3,  999.0,  999.0,  999.0,  999.0,  999.0,  999.0,  999.0,  999.0,  999.0,  999.0,  999.0,  999.0,  999.0,  999.0,  999.0,  999.0,  999.0,  999.0,  999.0,  999.0,  999.0,  999.0,  999.0,  999.0,  999.0,  999.0,  999.0,  999.0,  999.0,  999.0,  999.0,  999.0
2001/02/18 17:00,  999.0,    8.3,  999.0,   12.7,   13.6,   14.9,   21.0,   17.7,  999.0,   21.2,   21.3,  999.0,   21.4,  999.0,   22.6,   24.4,   24.7,  999.0,   26.5,   28.5,  999.0,  999.0,  999.0,  999.0,   31.4,  999.0,  999.0,   34.3,   34.9,  999.0,   36.5,  999.0,  999.0,  999.0,  999.0,  999.0,  999.0,  999.0,   41.2,  999.0,   41.3,   35.9,   40.6,   41.5,   41.4,   42.6,   41.5,  999.0,  999.0,   42.0,   41.6,  999.0,  999.0,   41.5,   41.9,   41.7,   42.1,   42.1
2001/02/18 17:10,  999.0,    6.1,   11.5,   12.4,   13.2,   14.3,  999.0,    7.3,   18.3,  999.0,   21.6,  999.0,   21.1,   20.8,   22.3,   22.8,   24.6,   24.9,  999.0,   26.3,  999.0,   28.0,  999.0,   29.5,  999.0,   31.9,   32.3,   33.6,   34.4,   34.5,   35.9,   37.3,   37.1,   38.4,  999.0,   40.8,  999.0,  999.0,  999.0,   42.8,   42.6,   42.2,  999.0,  999.0,   42.7,  999.0,  999.0,   41.2,   42.6,  999.0,   41.4,  999.0,   41.4,   42.7,   42.4,   41.6,  999.0,   41.1
2001/02/18 17:20,  999.0,    7.7,   11.2,   12.4,   13.7,   12.6,   16.5,   15.1,   20.9,   19.6,   20.5,   20.7,  999.0,   21.0,   22.7,  999.0,  999.0,   22.7,   24.8,   26.4,   26.9,   26.4,  999.0,  999.0,   31.1,  999.0,  999.0,   33.1,   35.1,   34.7,   36.4,   37.7,   39.3,   40.6,   41.5,   40.8,   41.2,  999.0,   41.5,   41.4,  999.0,   41.8,   41.8,  999.0,  999.0,  999.0,   41.1,  999.0,   41.3,   41.6,   41.6,   40.6,   41.5,   41.5,   41.3,   40.3,   41.4,   41.7
2001/02/18 17:30,  999.0,    2.7,   10.9,   10.4,    9.3,   12.9,   12.0,  999.0,  999.0,   21.4,  999.0,  999.0,   14.5,   21.7,  999.0,   21.4,  999.0,  999.0,  999.0,  999.0,   25.9,  999.0,  999.0,  999.0,   30.0,  999.0,   32.3,  999.0,  999.0,  999.0,   35.5,   37.3,  999.0,   37.6,  999.0,  999.0,  999.0,  999.0,   41.6,  999.0,  999.0,  999.0,  999.0,  999.0,  999.0,  999.0,  999.0,  999.0,  999.0,  999.0,   42.0,  999.0,  999.0,   42.0,  999.0,  999.0,   42.3,   41.8
2001/02/18 17:40,  999.0,  999.0,  999.0,   12.2,  999.0,   14.7,   13.9,  999.0,   21.0,   20.9,    0.9,   20.7,  -21.3,   22.0,  999.0,  999.0,   23.2,  999.0,    3.4,  999.0,  999.0,  999.0,   30.6,  999.0,  999.0,  999.0,   -8.9,   -8.7,   -6.6,    0.9,   -0.8,   -3.5,   -0.5,  999.0,   -0.7,   -1.0,  999.0,   -0.7,  999.0,   -1.1,   -0.9,  999.0,   -0.7,  999.0,  999.0,   -0.6,   -0.5,    0.4,  999.0,  999.0,  999.0,   -0.8,  999.0,   -0.8,  999.0,  999.0,  999.0,  999.0
2001/02/18 17:50,  999.0,    9.2,  999.0,   12.9,   13.7,   15.0,  999.0,   22.5,   21.7,   20.8,   21.1,   21.3,   21.2,  999.0,  999.0,   22.1,  999.0,  999.0,  999.0,  999.0,  999.0,  999.0,  999.0,  999.0,  999.0,    1.1,  999.0,  999.0,  999.0,  999.0,  999.0,  999.0,   -0.6,   -0.8,   -0.7,   -4.8,  999.0,   -1.4,   -0.8,   -0.9,   -0.7,  999.0,   -1.0,   -0.6,  999.0,   -0.8,    0.1,   -0.2,  999.0,  999.0,  999.0,   -0.8,  999.0,   -0.2,   -0.9,   -0.7,  999.0,    0.3
2001/02/18 18:00,  999.0,   10.1,   11.6,   13.6,   14.0,   15.3,   16.7,  999.0,  999.0,   21.9,   20.9,  999.0,  999.0,  999.0,   21.2,  999.0,  999.0,  999.0,  999.0,  999.0,  999.0,  999.0,  999.0,  999.0,  999.0,  999.0,  999.0,  999.0,  999.0,  999.0,  999.0,   -2.1,  999.0,   -1.1,   -0.3,  999.0,  999.0,  999.0,   -1.0,  999.0,   -1.0,   -1.3,   -0.0,   -1.3,   -0.6,   -0.8,  999.0,   -1.2,   -0.3,   -0.4,   -0.4,  999.0,   -0.4,   -0.7,   -0.5,  999.0,   -1.1,  999.0
2001/02/18 18:10,  999.0,   12.4,  999.0,   15.1,   20.8,   20.2,   19.1,   17.4,  999.0,  999.0,   20.2,  999.0,  999.0,  999.0,  999.0,  999.0,  999.0,  999.0,  999.0,  999.0,  999.0,  999.0,  999.0,  999.0,  999.0,  999.0,  999.0,  999.0,  999.0,  999.0,  999.0,  999.0,  999.0,   -0.7,  999.0,   -1.5,   -2.1,  999.0,  999.0,  999.0,  999.0,   -0.9,  999.0,  999.0,   -1.6,   -0.6,  999.0,  999.0,  999.0,   -0.3,  999.0,  999.0,  999.0,  999.0,  999.0,  999.0,  999.0,  999.0
2001/02/18 18:20,  999.0,   14.8,   17.4,   19.9,   19.2,   20.5,   21.5,  999.0,  999.0,   21.2,  999.0,  999.0,  999.0,  999.0,  999.0,  999.0,  999.0,  999.0,  999.0,  999.0,  999.0,  999.0,    7.5,  999.0,  999.0,  999.0,  999.0,  999.0,  999.0,  999.0,  999.0,  999.0,  999.0,  999.0,  999.0,  999.0,  999.0,  999.0,  999.0,  999.0,  999.0,  999.0,  999.0,  999.0,  999.0,  999.0,  999.0,  999.0,  999.0,  999.0,   -1.9,  999.0,   -1.4,  999.0,  999.0,  999.0,  999.0,  999.0
2001/02/18 18:30,  999.0,   15.3,   15.5,   15.7,   16.7,   20.9,   20.9,  999.0,   21.3,  999.0,   20.7,   20.8,  999.0,  999.0,   21.0,   21.0,  999.0,   22.3,  999.0,  999.0,  999.0,  999.0,  999.0,  999.0,  999.0,  999.0,  999.0,  999.0,  999.0,  999.0,  999.0,  999.0,  999.0,  999.0,  999.0,  999.0,  999.0,  999.0,  999.0,  999.0,  999.0,  999.0,  999.0,  999.0,  999.0,   -2.7,  999.0,  999.0,  999.0,  999.0,   -3.0,   -2.3,  999.0,  999.0,  999.0,  999.0,  999.0,  999.0
2001/02/18 18:40,  999.0,   11.1,    4.8,   11.3,   16.6,   16.2,   11.0,   11.9,    2.8,   12.2,   12.4,    2.4,    3.8,   12.7,    5.2,    4.9,    3.6,   11.1,  999.0,   24.1,  999.0,   24.7,  999.0,   22.6,  999.0,   27.3,  999.0,  999.0,  999.0,  999.0,  999.0,  999.0,   24.1,  999.0,  999.0,   29.6,  999.0,    5.7,  999.0,  999.0,  999.0,  999.0,  999.0,  999.0,  999.0,  999.0,   -2.9,  999.0,  999.0,   -0.5,   -1.1,   -1.3,  999.0,  999.0,    0.0,   -1.3,   -0.9,  999.0
2001/02/18 18:50,  999.0,    0.5,    2.2,    5.9,    5.8,    1.4,    2.0,   10.7,    9.3,   15.2,    9.6,   10.7,   16.6,   11.5,   20.8,   16.9,   17.7,   18.6,   18.2,   17.5,   16.6,   14.6,   13.5,   12.4,   10.8,   10.3,   11.4,   11.7,   12.3,   13.4,   15.7,   17.8,   20.7,   22.0,   24.1,   22.6,   20.6,   18.9,   19.6,   21.9,   25.6,   29.4,   31.3,   32.9,   27.8,   33.9,  999.0,  999.0,  999.0,   41.9,   41.9,  999.0,  999.0,  999.0,  999.0,  999.0,   41.9,  999.0
2001/02/18 19:00,  999.0,    0.5,    1.3,    0.4,    0.2,   -0.2,   -0.2,   -0.8,    1.6,  999.0,    0.2,    3.3,   11.1,  999.0,  999.0,  999.0,  999.0,  999.0,    2.1,    2.3,  999.0,  999.0,  999.0,  999.0,  999.0,  999.0,  999.0,  999.0,  999.0,  999.0,  999.0,  999.0,  999.0,   26.1,   27.2,  999.0,  999.0,  999.0,  999.0,  999.0,  999.0,  999.0,  999.0,  999.0,  999.0,  999.0,  999.0,  999.0,  999.0,   42.3,  999.0,  999.0,  999.0,   42.5,   42.5,  999.0,  999.0,   41.8
2001/02/18 19:10,  999.0,    4.7,    0.3,    0.6,    1.6,   -0.7,    7.9,    3.2,   10.2,  999.0,   21.5,  999.0,  999.0,  999.0,   21.1,  999.0,  999.0,  999.0,  999.0,   25.1,   15.4,   26.2,  999.0,  999.0,  999.0,   28.6,  999.0,   30.5,  999.0,  999.0,  999.0,  999.0,  999.0,  999.0,  999.0,   36.0,  999.0,  999.0,  999.0,  999.0,  999.0,   40.6,  999.0,  999.0,  999.0,  999.0,  999.0,  999.0,  999.0,   41.8,   42.1,  999.0,  999.0,   41.8,   41.7,  999.0,  999.0,   42.4
2001/02/18 19:20,  999.0,   -0.0,    2.0,  999.0,    7.3,  999.0,  999.0,    8.0,  999.0,  999.0,  999.0,  999.0,  999.0,   22.4,  999.0,  999.0,   22.0,  999.0,  999.0,  999.0,  999.0,  999.0,   27.3,  999.0,  999.0,   31.8,  999.0,   29.9,  999.0,  999.0,   32.7,   32.2,  999.0,  999.0,  999.0,  999.0,   35.5,  999.0,  999.0,  999.0,  999.0,  999.0,  999.0,  999.0,  999.0,  999.0,   41.1,  999.0,  999.0,   41.5,  999.0,  999.0,  999.0,  999.0,   41.0,  999.0,  999.0,  999.0
2001/02/18 19:30,  999.0,   13.9,   13.9,  999.0,  999.0,  999.0,   16.5,   19.6,  999.0,  999.0,  999.0,   14.1,  999.0,  999.0,  999.0,  999.0,  999.0,  999.0,  999.0,  999.0,  999.0,  999.0,  999.0,   16.0,   17.4,   17.7,   17.6,   20.5,   21.2,  999.0,  999.0,  999.0,  999.0,   26.8,  999.0,  999.0,  999.0,  999.0,   32.6,  999.0,  999.0,  999.0,   36.0,  999.0,  999.0,  999.0,   40.4,  999.0,   41.2,  999.0,  999.0,  999.0,  999.0,   42.0,   41.4,   41.0,  999.0,  999.0
2001/02/18 19:40,  999.0,    2.5,    8.9,    4.0,    2.5,    5.9,   12.4,   11.8,    7.9,   19.3,  999.0,    7.8,  999.0,  999.0,  999.0,  999.0,  999.0,  999.0,  999.0,  999.0,  999.0,  999.0,  999.0,  999.0,  999.0,  999.0,  999.0,  999.0,  999.0,  999.0,  999.0,  999.0,  999.0,  999.0,  999.0,  999.0,  999.0,  999.0,  999.0,  999.0,  999.0,  999.0,  999.0,  999.0,  999.0,  999.0,  999.0,  999.0,  999.0,  999.0,  999.0,  999.0,  999.0,  999.0,  999.0,  999.0,  999.0,  999.0
2001/02/18 19:50,  999.0,   -0.1,    7.8,    6.7,    8.1,    9.8,    3.1,  999.0,    4.2,    6.8,    5.2,   13.9,   17.4,  999.0,   15.0,  999.0,   13.9,   14.0,  999.0,  999.0,  999.0,  999.0,  999.0,  999.0,  999.0,  999.0,  999.0,  999.0,  999.0,  999.0,  999.0,  999.0,  999.0,  999.0,  999.0,  999.0,  999.0,  999.0,  999.0,  999.0,  999.0,  999.0,  999.0,  999.0,  999.0,  999.0,  999.0,  999.0,  999.0,  999.0,  999.0,  999.0,  999.0,  999.0,  999.0,  999.0,  999.0,  999.0
2001/02/18 20:00,  999.0,  999.0,    1.5,   12.7,  999.0,  999.0,  999.0,   11.7,   16.4,   16.1,   15.1,   14.5,   15.7,  999.0,   21.0,  999.0,  999.0,  999.0,  999.0,  999.0,  999.0,  999.0,  999.0,  999.0,  999.0,  999.0,  999.0,  999.0,  999.0,  999.0,  999.0,  999.0,  999.0,  999.0,  999.0,  999.0,  999.0,  999.0,  999.0,  999.0,  999.0,  999.0,  999.0,  999.0,  999.0,  999.0,  999.0,  999.0,  999.0,  999.0,  999.0,  999.0,  999.0,  999.0,  999.0,  999.0,  999.0,  999.0
2001/02/18 20:10,  999.0,  999.0,  999.0,  999.0,   12.3,   12.1,   15.9,  999.0,  999.0,   14.6,   16.4,   17.3,   17.9,  999.0,  999.0,  999.0,  999.0,  999.0,  999.0,  999.0,  999.0,  999.0,  999.0,  999.0,  999.0,  999.0,  999.0,  999.0,  999.0,  999.0,  999.0,  999.0,  999.0,  999.0,  999.0,  999.0,  999.0,  999.0,  999.0,  999.0,  999.0,  999.0,  999.0,  999.0,  999.0,  999.0,  999.0,  999.0,  999.0,  999.0,  999.0,  999.0,  999.0,  999.0,  999.0,  999.0,  999.0,  999.0
2001/02/18 20:20,  999.0,    9.9,    4.6,   11.3,   11.1,   11.3,    9.5,   12.9,    1.2,  999.0,   -1.5,   12.5,  999.0,  999.0,  999.0,  999.0,  999.0,  999.0,  999.0,  999.0,   20.5,  999.0,  999.0,  999.0,   21.3,  999.0,  999.0,  999.0,  999.0,   20.9,   21.1,  999.0,  999.0,  999.0,  999.0,  999.0,  999.0,  999.0,   11.0,   12.1,  999.0,  999.0,  999.0,  999.0,  999.0,  999.0,  999.0,  999.0,  999.0,  999.0,  999.0,  999.0,  999.0,  999.0,  999.0,  999.0,  999.0,  999.0
2001/02/18 20:30,  999.0,  999.0,    9.9,   11.1,   10.5,   10.8,   12.1,   12.4,   13.2,   15.2,   17.5,  999.0,   21.3,  999.0,  999.0,  999.0,  999.0,  999.0,  999.0,  999.0,  999.0,  999.0,  999.0,  999.0,  999.0,  999.0,  999.0,  999.0,  999.0,  999.0,  999.0,  999.0,  999.0,  999.0,  999.0,  999.0,  999.0,  999.0,  999.0,  999.0,  999.0,  999.0,  999.0,  999.0,  999.0,  999.0,  999.0,  999.0,  999.0,  999.0,  999.0,  999.0,  999.0,  999.0,  999.0,  999.0,  999.0,  999.0
2001/02/18 20:40,  999.0,   10.3,    9.8,  999.0,   14.2,  999.0,   11.0,    9.2,   11.4,   10.5,   14.5,   15.5,  999.0,  999.0,   14.5,  999.0,  999.0,  999.0,  999.0,  999.0,  999.0,  999.0,   15.0,   16.6,  999.0,   20.7,  999.0,  999.0,  999.0,  999.0,  999.0,   21.2,  999.0,  999.0,  999.0,  999.0,   21.6,  999.0,  999.0,  999.0,   21.1,  999.0,  999.0,  999.0,  999.0,  999.0,   21.5,   21.8,  999.0,  999.0,   23.4,  999.0,   20.9,  999.0,  999.0,   21.2,  999.0,  999.0
2001/02/18 20:50,  999.0,  999.0,    9.2,  999.0,  999.0,  999.0,    9.0,    9.2,  999.0,   12.8,  999.0,   12.1,  999.0,   16.1,   14.9,  999.0,  999.0,  999.0,   15.9,  999.0,  999.0,   18.0,  999.0,  999.0,  999.0,  999.0,  999.0,  999.0,  999.0,  999.0,  999.0,  999.0,  999.0,  999.0,  999.0,  999.0,  999.0,  999.0,  999.0,  999.0,  999.0,  999.0,  999.0,  999.0,  999.0,  999.0,  999.0,  999.0,  999.0,  999.0,  999.0,  999.0,  999.0,  999.0,  999.0,  999.0,  999.0,  999.0
2001/02/18 21:00,  999.0,    8.4,    8.6,    7.1,  999.0,   -6.4,    0.5,    4.6,    5.0,  999.0,   12.0,   10.4,  999.0,   13.4,   14.3,   13.7,   20.4,  999.0,   20.6,  999.0,  999.0,  999.0,   15.6,  999.0,  999.0,  999.0,   13.3,  999.0,  999.0,   15.3,  999.0,  999.0,  999.0,  999.0,  999.0,   21.0,  999.0,   21.6,   21.0,  999.0,  999.0,   20.4,  999.0,   20.8,  999.0,  999.0,  999.0,  999.0,  999.0,  999.0,   21.3,  999.0,   20.5,  999.0,  999.0,  999.0,  999.0,  999.0
2001/02/18 21:10,  999.0,    5.7,    9.5,    8.5,    9.3,    2.1,  999.0,  999.0,  999.0,   11.0,   11.0,   11.9,   14.5,   14.0,   13.1,  999.0,  999.0,   13.6,  999.0,  999.0,  999.0,  999.0,  999.0,  999.0,  999.0,  999.0,  999.0,  999.0,  999.0,  999.0,  999.0,  999.0,  999.0,  999.0,  999.0,  999.0,  999.0,  999.0,  999.0,  999.0,  999.0,  999.0,  999.0,  999.0,  999.0,  999.0,  999.0,  999.0,  999.0,  999.0,  999.0,  999.0,  999.0,  999.0,  999.0,  999.0,  999.0,  999.0
2001/02/18 21:20,  999.0,    9.4,    7.1,    7.0,    7.1,    7.4,    6.5,    5.8,  999.0,  999.0,  999.0,   13.3,   14.2,  999.0,  999.0,  999.0,  999.0,  999.0,  999.0,  999.0,  999.0,  999.0,  999.0,  999.0,  999.0,  999.0,  999.0,  999.0,  999.0,  999.0,  999.0,  999.0,  999.0,  999.0,  999.0,  999.0,  999.0,  999.0,  999.0,  999.0,  999.0,  999.0,  999.0,  999.0,  999.0,  999.0,  999.0,  999.0,  999.0,  999.0,  999.0,  999.0,  999.0,  999.0,  999.0,  999.0,  999.0,  999.0
2001/02/18 21:30,  999.0,  999.0,  999.0,    7.8,    8.1,   11.9,   11.9,   12.4,   13.0,   16.0,   12.6,   11.2,  999.0,  999.0,  999.0,  999.0,  999.0,  999.0,  999.0,  999.0,  999.0,  999.0,  999.0,  999.0,  999.0,  999.0,  999.0,  999.0,  999.0,  999.0,  999.0,  999.0,  999.0,  999.0,  999.0,  999.0,  999.0,  999.0,  999.0,  999.0,  999.0,  999.0,  999.0,  999.0,  999.0,  999.0,  999.0,  999.0,  999.0,  999.0,  999.0,  999.0,  999.0,  999.0,  999.0,  999.0,  999.0,  999.0
2001/02/18 21:40,  999.0,  999.0,  999.0,    6.7,  999.0,   17.7,   20.0,   17.0,   13.2,  999.0,  999.0,   15.3,   13.7,   13.3,   12.6,  999.0,  999.0,  999.0,  999.0,  999.0,  999.0,  999.0,  999.0,  999.0,  999.0,  999.0,   21.8,   21.8,   22.0,  999.0,  999.0,  999.0,  999.0,  999.0,  999.0,  999.0,  999.0,  999.0,   23.0,  999.0,   21.9,  999.0,  999.0,  999.0,  999.0,  999.0,  999.0,  999.0,  999.0,  999.0,  999.0,  999.0,  999.0,  999.0,  999.0,  999.0,  999.0,  999.0
2001/02/18 21:50,  999.0,    7.0,    7.3,    7.1,  999.0,  999.0,   10.3,   13.1,   12.9,  999.0,  999.0,   13.4,   13.5,   15.5,   21.2,  999.0,  999.0,  999.0,  999.0,  999.0,  999.0,  999.0,  999.0,  999.0,  999.0,  999.0,  999.0,  999.0,  999.0,  999.0,  999.0,  999.0,  999.0,  999.0,  999.0,  999.0,  999.0,  999.0,  999.0,  999.0,  999.0,  999.0,  999.0,  999.0,  999.0,  999.0,  999.0,  999.0,  999.0,  999.0,  999.0,  999.0,  999.0,  999.0,  999.0,  999.0,  999.0,  999.0
2001/02/18 22:00,  999.0,    9.3,    8.7,    8.0,   10.1,  999.0,   13.5,  999.0,  999.0,   18.1,   16.9,   21.5,   21.3,  999.0,  999.0,  999.0,  999.0,  999.0,  999.0,  999.0,  999.0,  999.0,  999.0,  999.0,  999.0,  999.0,  999.0,  999.0,  999.0,  999.0,  999.0,  999.0,  999.0,  999.0,  999.0,  999.0,  999.0,  999.0,  999.0,  999.0,  999.0,  999.0,  999.0,  999.0,  999.0,  999.0,  999.0,  999.0,  999.0,  999.0,  999.0,  999.0,  999.0,  999.0,  999.0,  999.0,  999.0,  999.0
2001/02/18 22:10,  999.0,    4.4,    2.9,    5.1,  999.0,   12.9,   14.8,  999.0,  999.0,  999.0,   17.8,   13.9,   20.3,   21.2,   22.5,  999.0,  999.0,  999.0,   20.3,  999.0,   20.5,  999.0,   20.5,  999.0,   21.1,  999.0,   20.8,  999.0,   20.7,   20.3,   20.1,  999.0,  999.0,   19.8,  999.0,  999.0,   19.9,  999.0,  999.0,  999.0,  999.0,  999.0,  999.0,   19.4,  999.0,   20.1,  999.0,   19.1,  999.0,  999.0,  999.0,  999.0,   19.0,   18.9,  999.0,  999.0,  999.0,  999.0
2001/02/18 22:20,  999.0,  999.0,   -0.1,    8.3,  999.0,    1.6,    0.2,   12.4,   17.3,   21.7,   18.0,   17.2,   17.7,   14.8,   14.8,  999.0,  999.0,   15.2,  999.0,   19.7,  999.0,   15.3,   18.6,  999.0,  999.0,  999.0,  999.0,  999.0,  999.0,  999.0,  999.0,   20.9,   21.1,  999.0,  999.0,  999.0,  999.0,  999.0,  999.0,  999.0,  999.0,  999.0,  999.0,  999.0,  999.0,  999.0,  999.0,  999.0,  999.0,  999.0,  999.0,  999.0,  999.0,  999.0,  999.0,  999.0,  999.0,  999.0
2001/02/18 22:30,  999.0,  999.0,   19.8,   21.1,   21.9,   20.7,   21.2,   22.0,  999.0,   21.6,   18.0,   14.3,   15.1,   15.9,   15.9,  999.0,  999.0,  999.0,  999.0,  999.0,  999.0,  999.0,  999.0,  999.0,  999.0,  999.0,  999.0,  999.0,  999.0,  999.0,  999.0,  999.0,  999.0,  999.0,  999.0,  999.0,  999.0,  999.0,  999.0,  999.0,  999.0,  999.0,  999.0,  999.0,  999.0,  999.0,  999.0,  999.0,  999.0,  999.0,  999.0,  999.0,  999.0,  999.0,  999.0,  999.0,  999.0,  999.0
2001/02/18 22:40,  999.0,  999.0,   21.1,  999.0,  999.0,  999.0,   22.2,   21.3,   21.4,   21.6,   21.5,   19.0,   18.0,   16.2,   16.4,  999.0,  999.0,  999.0,  999.0,  999.0,  999.0,  999.0,  999.0,  999.0,  999.0,  999.0,  999.0,  999.0,  999.0,  999.0,  999.0,  999.0,  999.0,  999.0,  999.0,  999.0,  999.0,  999.0,  999.0,  999.0,  999.0,  999.0,  999.0,  999.0,  999.0,  999.0,  999.0,  999.0,  999.0,  999.0,  999.0,  999.0,  999.0,  999.0,  999.0,  999.0,  999.0,  999.0
2001/02/18 22:50,  999.0,  999.0,  999.0,   23.2,   10.5,    9.8,   20.9,    9.5,   21.9,   21.1,   19.5,   21.1,   21.3,  999.0,  999.0,  999.0,  999.0,  999.0,  999.0,  999.0,  999.0,  999.0,  999.0,  999.0,  999.0,  999.0,  999.0,  999.0,  999.0,  999.0,  999.0,  999.0,  999.0,  999.0,  999.0,  999.0,  999.0,  999.0,  999.0,  999.0,  999.0,  999.0,  999.0,  999.0,  999.0,  999.0,  999.0,  999.0,  999.0,  999.0,  999.0,  999.0,  999.0,  999.0,  999.0,  999.0,  999.0,  999.0
2001/02/18 23:00,  999.0,  999.0,    8.7,   10.3,    5.1,    5.8,    6.4,    9.3,   19.2,   18.2,    4.8,   11.2,  999.0,  999.0,  999.0,  999.0,  999.0,  999.0,  999.0,  999.0,  999.0,  999.0,  999.0,  999.0,  999.0,  999.0,  999.0,  999.0,  999.0,  999.0,  999.0,  999.0,  999.0,  999.0,  999.0,  999.0,  999.0,  999.0,  999.0,  999.0,  999.0,  999.0,  999.0,  999.0,  999.0,  999.0,  999.0,  999.0,  999.0,  999.0,  999.0,  999.0,  999.0,  999.0,  999.0,  999.0,  999.0,  999.0
2001/02/18 23:10,  999.0,    7.8,   15.0,    9.0,    8.5,    8.2,  999.0,  999.0,  999.0,   21.2,   19.3,  999.0,   24.4,   31.3,   26.9,  999.0,  999.0,  999.0,  999.0,  999.0,  999.0,  999.0,  999.0,  999.0,   40.0,   41.1,  999.0,  999.0,  999.0,  999.0,  999.0,  999.0,   41.6,  999.0,   41.4,   41.0,  999.0,  999.0,   41.9,   41.4,   41.3,  999.0,  999.0,  999.0,  999.0,  999.0,  999.0,   41.4,  999.0,   41.1,   41.4,  999.0,  999.0,  999.0,   41.1,  999.0,  999.0,  999.0
2001/02/18 23:20,  999.0,    7.9,    7.2,    8.3,   12.8,    7.4,   11.9,   12.2,   13.2,   13.3,   13.5,   14.2,  999.0,   12.6,   12.7,  999.0,   15.7,  999.0,  999.0,  999.0,  999.0,  999.0,  999.0,  999.0,  999.0,  999.0,  999.0,  999.0,  999.0,  999.0,  999.0,  999.0,  999.0,  999.0,  999.0,  999.0,  999.0,  999.0,  999.0,  999.0,  999.0,  999.0,  999.0,  999.0,  999.0,  999.0,  999.0,  999.0,  999.0,  999.0,  999.0,  999.0,  999.0,  999.0,  999.0,  999.0,  999.0,  999.0
2001/02/18 23:30,  999.0,    7.2,   14.4,    8.7,  999.0,  999.0,   12.2,   12.4,  999.0,   13.1,   15.2,  999.0,  999.0,  999.0,   20.9,   21.2,   21.1,  999.0,   18.7,   18.4,   17.9,   18.7,   18.3,   19.0,  999.0,   18.3,   18.8,   17.9,   19.2,  999.0,   18.6,  999.0,  999.0,  999.0,   26.4,  999.0,   29.0,   30.3,  999.0,   30.9,  999.0,  999.0,   28.6,  999.0,   33.7,  999.0,   35.0,   31.3,   33.3,  999.0,   38.1,   37.1,   38.5,   40.1,  999.0,   41.6,  999.0,   41.5
2001/02/18 23:40,  999.0,    4.4,    4.9,   10.0,    3.9,  999.0,   10.5,   17.5,   13.5,   15.8,   15.8,   16.1,   21.1,  999.0,   21.5,   21.0,   20.9,   17.8,  999.0,   18.4,   17.7,   17.5,   16.2,  999.0,  999.0,  999.0,  999.0,  999.0,  999.0,  999.0,  999.0,  999.0,  999.0,  999.0,  999.0,  999.0,  999.0,  999.0,  999.0,  999.0,  999.0,  999.0,  999.0,  999.0,  999.0,  999.0,  999.0,  999.0,  999.0,  999.0,  999.0,  999.0,  999.0,  999.0,  999.0,  999.0,  999.0,  999.0
2001/02/18 23:50,  999.0,    6.9,    5.6,    7.6,   10.1,    9.1,   10.8,   11.7,   13.7,   15.0,   15.5,   20.5,   21.3,   21.4,   20.8,  999.0,  999.0,  999.0,  999.0,  999.0,  999.0,  999.0,  999.0,  999.0,  999.0,  999.0,  999.0,  999.0,  999.0,  999.0,  999.0,  999.0,  999.0,  999.0,  999.0,  999.0,  999.0,  999.0,  999.0,  999.0,  999.0,  999.0,  999.0,  999.0,  999.0,  999.0,  999.0,  999.0,  999.0,  999.0,  999.0,  999.0,  999.0,  999.0,  999.0,  999.0,  999.0,  999.0
